GFSWCAN_2pvu_pres_000.txt.gz
Presure
250 251 248 256 255 251 241 241 251 251 239 227 228 219 249 229 218 217 208 198 204 197 200 197 198 188 198 195 188 199 190 190 202 206 206 194 194 199 198 200 201 203 199 195 196 196 192 194 191 190 198 140 160 197
243 210 243 249 242 243 230 241 262 242 240 226 226 218 246 227 220 205 214 204 186 194 201 178 194 193 194 195 193 190 189 185 198 186 202 211 198 193 196 192 204 206 209 209 201 180 198 202 193 191 193 194 193 193
238 237 244 229 228 247 249 249 256 240 231 225 222 218 243 228 227 197 218 194 202 203 200 199 180 187 195 194 194 195 193 191 198 199 186 195 199 191 189 184 198 211 222 196 196 197 190 109 192 193 198 191 189 190
239 232 228 239 245 250 259 283 239 239 229 220 223 216 221 233 224 198 213 208 216 198 191 191 196 189 186 191 197 190 189 190 191 190 193 201 197 196 192 195 195 199 195 158 85 165 187 189 196 194 188 189 199 205
255 236 242 252 245 277 288 253 240 232 225 224 219 213 194 213 222 204 187 214 204 211 208 202 200 199 185 193 193 193 190 191 189 192 198 195 195 195 192 190 185 102 176 192 189 189 195 196 191 190 201 208 202 196
235 259 247 268 288 268 255 242 239 228 223 220 214 219 239 233 222 217 204 204 195 202 208 204 202 199 203 196 177 181 182 185 192 189 94 198 196 195 198 193 183 191 196 194 196 196 191 193 199 199 197 208 215 212
239 228 242 282 260 251 243 239 224 226 218 211 218 225 235 230 220 220 213 202 206 199 206 207 198 192 191 193 196 196 200 202 199 198 198 198 198 192 194 180 198 200 197 200 207 199 205 211 215 209 208 220 215 212
252 260 273 280 249 250 241 237 223 222 217 217 206 238 251 219 233 222 216 210 210 203 201 207 204 204 205 197 192 188 206 200 201 198 203 199 199 200 179 183 189 198 199 205 211 216 221 221 222 225 213 209 193 200
306 244 281 254 250 245 239 237 220 218 216 216 210 211 217 204 236 230 223 220 207 206 195 209 202 200 203 202 204 204 202 203 204 207 212 199 192 196 201 211 203 207 213 226 223 215 212 213 216 197 195 200 202 205
242 266 254 252 254 244 238 233 229 219 218 217 216 212 207 245 241 241 239 223 218 216 226 224 205 200 205 210 210 216 219 214 195 194 198 200 196 200 210 217 219 207 206 202 201 199 197 202 205 207 207 208 215 215
263 261 244 234 243 244 239 231 231 228 219 215 216 214 213 212 212 217 235 232 231 235 238 217 216 225 229 211 210 218 216 224 223 218 218 216 219 209 202 205 207 208 209 209 210 210 207 214 219 219 215 218 226 229
254 247 251 251 238 250 236 232 235 236 230 218 216 207 209 213 210 211 209 202 200 216 228 222 221 215 213 214 220 220 216 219 220 208 205 201 202 206 208 210 208 204 213 221 220 219 217 217 218 228 232 229 240 241
251 252 244 248 247 247 233 229 237 231 227 219 215 219 216 214 209 210 213 210 206 201 203 200 202 210 212 212 207 208 212 212 212 213 213 212 210 214 220 220 220 219 215 214 225 227 228 239 243 239 245 248 243 252
251 251 211 211 250 243 250 243 229 228 234 204 222 224 220 221 211 216 213 213 213 213 211 212 211 211 211 211 209 206 205 216 214 215 217 221 224 217 210 215 224 227 226 228 226 236 243 244 252 260 262 269 265 233
252 241 226 216 220 235 239 245 244 234 241 237 235 230 223 221 221 222 222 220 218 212 210 209 209 213 215 216 216 215 217 217 213 209 209 218 222 227 229 226 229 238 244 249 248 253 258 260 257 247 240 243 236 237
249 252 245 243 253 237 229 248 235 235 235 228 222 214 226 231 234 232 230 229 227 223 218 218 220 219 219 220 224 226 229 231 231 235 229 234 238 239 242 250 255 253 258 253 254 261 254 241 236 235 240 246 277 285
241 239 236 236 240 231 234 236 242 248 247 229 234 238 233 235 240 238 238 231 228 231 231 235 234 230 230 226 225 228 228 224 232 233 241 246 252 255 251 255 240 256 235 240 234 233 237 246 295 298 285 285 291 291
242 244 242 244 240 235 241 258 246 251 246 222 226 228 238 246 239 231 228 239 239 239 240 236 229 237 247 244 243 242 240 242 252 244 244 257 255 243 266 271 268 237 242 257 257 296 309 301 282 277 270 273 285 290
235 238 238 238 240 241 232 248 241 242 248 255 236 238 236 242 238 232 233 234 237 237 250 252 247 252 261 263 256 251 248 250 267 254 251 246 233 234 236 241 264 294 302 311 281 265 261 279 307 345 344 340 339 333
236 234 248 246 246 248 250 248 249 253 242 242 247 244 245 243 239 230 251 248 250 241 244 245 246 237 233 256 255 222 252 237 235 239 259 253 259 272 276 273 270 264 271 330 327 334 341 334 334 330 326 324 331 353
245 231 235 237 241 246 249 257 255 246 246 235 240 253 253 254 248 255 259 244 253 233 233 233 227 243 257 258 269 270 267 267 262 265 278 287 301 307 307 337 337 332 335 336 333 338 339 333 350 354 353 353 351 347
253 262 252 246 245 255 256 256 255 252 255 256 249 252 254 251 256 256 261 263 259 259 260 261 263 263 271 271 268 269 270 277 295 306 320 341 332 326 334 332 365 364 364 358 355 352 350 348 349 348 345 340 348 389
261 265 258 259 265 265 254 254 259 260 260 257 261 260 258 258 258 252 256 262 263 267 272 276 286 286 277 278 276 276 320 339 332 257 291 323 341 377 372 365 359 352 348 345 346 343 341 336 334 338 359 376 400 389
260 271 298 259 292 280 285 285 298 294 255 261 266 280 286 282 269 268 268 257 264 176 275 287 321 324 327 330 331 326 325 316 322 333 383 375 369 363 358 356 351 345 339 335 333 329 334 345 358 372 394 387 388 385
310 307 309 317 285 317 278 277 279 277 278 282 287 322 317 287 282 278 277 281 329 324 327 281 279 303 324 332 338 350 389 386 382 381 378 371 367 358 351 344 340 337 336 335 332 354 349 387 388 376 384 378 359 346
300 305 303 310 300 303 310 311 309 312 312 315 321 327 327 331 345 362 419 386 373 365 365 371 380 387 390 389 388 387 385 379 374 368 360 356 351 346 347 341 340 334 345 356 347 389 385 374 379 370 352 344 342 332
323 323 323 327 333 341 342 357 384 407 462 456 454 453 453 447 471 494 453 440 417 400 391 387 385 385 384 379 375 367 362 358 353 350 349 348 347 345 339 339 357 353 362 385 378 371 378 365 346 340 341 334 350 360
339 345 355 377 444 431 422 426 420 415 409 403 404 403 406 400 419 445 403 389 379 374 367 364 363 362 361 356 349 352 356 352 349 343 342 342 349 358 353 361 377 373 368 373 373 357 343 341 349 319 365 356 345 394
388 394 393 389 391 387 389 382 379 377 374 377 379 379 378 374 372 373 370 364 357 356 355 352 348 346 346 344 342 335 335 338 340 338 347 354 363 369 368 367 371 375 366 345 342 346 339 310 375 356 352 369 420 390
364 362 363 360 358 359 355 354 354 351 352 351 352 352 349 348 346 350 353 350 348 345 341 340 339 336 332 332 331 342 350 353 359 363 367 372 374 369 373 362 350 337 336 347 327 307 369 366 355 356 425 405 382 358
350 349 349 346 343 342 342 342 343 345 343 343 346 346 344 344 341 341 341 340 339 340 341 346 350 350 353 358 361 363 366 369 366 361 365 367 357 346 340 342 336 372 319 353 344 340 361 349 357 407 388 366 345 341
348 346 341 342 341 339 337 324 352 349 344 346 341 343 353 354 352 353 354 356 357 358 359 362 363 363 361 361 356 359 368 369 358 354 351 365 398 395 383 332 298 376 356 345 371 358 344 352 397 380 358 342 339 342
352 354 362 369 372 372 370 369 373 370 354 350 351 371 372 367 364 357 356 354 351 350 352 355 366 368 364 361 354 356 368 376 377 380 379 384 371 351 298 303 368 164 178 370 348 344 352 400 390 361 344 342 338 332

GFSWCAN_2pvu_pres_003.txt.gz
Presure
254 274 282 275 265 269 262 255 253 251 256 255 253 265 241 235 215 225 222 227 214 211 213 217 207 187 199 196 199 192 190 211 208 203 202 204 200 195 196 199 197 196 196 198 202 200 207 209 206 207 190 194 194 193
295 289 259 253 252 255 255 253 250 251 250 248 245 247 246 226 215 229 221 219 213 212 208 218 210 200 195 195 191 197 192 194 191 207 197 190 204 203 205 207 209 207 204 198 186 184 193 208 197 196 194 190 182 189
257 260 264 250 252 242 243 243 247 244 241 232 244 243 231 218 218 231 219 217 212 205 204 209 212 201 199 198 190 194 199 195 193 188 188 187 185 192 187 188 183 204 203 209 184 196 204 111 193 183 195 196 195 189
242 255 253 243 238 240 238 226 231 239 246 239 249 238 230 214 238 227 212 217 214 211 201 206 201 204 202 200 201 196 194 194 197 195 198 195 193 189 182 191 195 77 78 136 190 187 190 187 188 192 192 196 197 196
238 229 231 241 238 233 231 237 245 240 239 255 230 225 228 213 240 225 219 215 211 214 194 201 179 199 203 200 188 179 188 194 192 198 195 192 190 188 189 190 181 188 195 196 199 192 197 197 193 192 196 194 197 206
236 243 242 230 230 226 227 241 234 268 253 246 227 224 224 213 240 223 218 215 196 200 211 199 200 202 202 196 198 199 195 190 191 193 190 179 186 107 187 194 194 191 200 206 201 198 190 189 196 193 202 203 207 201
231 239 239 241 243 241 234 258 234 245 251 242 226 225 219 213 242 228 219 217 212 195 211 206 196 196 202 196 200 200 199 199 199 200 198 199 201 201 188 203 199 196 202 199 208 209 194 204 201 204 211 209 203 203
233 225 234 241 240 247 252 239 252 272 248 238 225 219 215 209 226 242 222 217 217 212 186 213 213 212 210 204 207 207 201 197 198 198 194 191 195 192 190 200 200 196 207 199 193 200 201 205 215 216 204 181 210 206
245 231 235 241 248 243 234 267 277 257 231 232 223 217 216 212 240 194 235 224 218 217 209 203 204 201 193 193 200 207 208 208 207 205 206 206 201 199 199 200 202 192 196 208 214 214 218 227 209 208 207 210 205 213
247 230 258 231 269 275 273 260 249 245 231 230 219 215 220 212 238 249 232 229 223 216 213 209 209 208 206 207 205 206 207 211 210 206 206 202 203 199 208 213 208 209 219 223 219 220 202 202 202 207 212 220 214 215
238 249 231 237 270 263 258 250 245 239 235 225 220 214 214 218 238 254 246 228 231 223 220 213 210 212 210 211 216 217 213 213 217 216 211 213 205 213 216 216 221 228 217 213 200 207 211 211 214 221 216 216 226 225
255 259 259 250 267 253 243 245 241 233 222 218 220 216 218 213 218 222 249 244 228 222 227 222 217 220 223 223 192 184 226 235 208 221 221 219 212 222 232 229 218 210 213 211 204 211 221 219 213 218 226 231 237 249
292 245 246 247 261 251 234 240 240 241 227 220 226 221 218 218 219 208 204 208 246 242 236 231 231 232 231 232 229 233 232 232 232 229 223 217 213 209 209 211 204 201 213 223 219 212 216 224 233 233 243 251 246 238
269 250 267 263 256 244 247 229 218 235 232 227 220 212 210 216 217 215 213 210 210 209 210 212 211 211 211 209 207 207 208 209 204 207 213 214 213 214 214 218 220 213 210 214 228 227 234 237 246 248 241 253 254 243
250 240 243 247 244 240 251 251 235 229 235 236 230 226 222 218 220 218 218 218 214 213 213 212 212 214 216 216 215 216 218 218 218 219 220 216 211 210 211 218 227 235 232 230 234 243 243 252 235 244 257 249 239 241
253 251 258 225 251 241 241 244 233 226 243 236 232 237 235 230 226 222 218 217 218 219 220 221 220 221 222 221 222 221 223 222 223 228 231 235 238 241 242 242 239 238 244 253 255 252 239 241 257 250 244 270 266 292
249 246 240 247 248 244 239 205 228 241 240 242 237 233 193 194 237 233 229 222 217 220 221 224 225 226 230 231 231 231 231 227 223 225 231 233 237 235 245 249 248 249 255 258 254 258 251 249 248 258 298 314 327 333
260 253 246 245 243 249 206 247 233 215 223 224 237 243 250 249 243 240 228 223 222 214 240 228 239 237 236 236 236 236 231 224 229 238 249 248 247 242 240 252 233 239 251 243 243 249 279 271 307 322 342 341 298 308
246 252 241 254 264 257 251 251 249 246 243 238 244 238 244 251 249 235 241 242 233 232 235 238 237 237 240 244 237 234 239 243 243 245 240 248 256 242 244 244 236 243 247 268 287 275 290 332 341 329 320 342 361 359
248 248 244 241 254 249 243 237 239 240 238 239 242 246 236 241 253 256 251 246 228 235 228 233 245 249 237 239 244 246 240 237 244 251 262 254 246 247 269 258 283 296 299 290 293 345 335 324 317 370 378 372 365 357
253 250 249 247 237 242 241 246 251 254 241 233 237 251 249 237 233 247 251 256 245 245 245 250 255 253 253 251 253 252 248 252 264 263 249 264 274 275 277 293 311 319 324 340 328 322 325 379 376 371 361 356 351 350
236 262 248 252 255 253 254 243 244 245 247 247 245 252 255 254 253 252 260 255 251 247 237 239 241 244 249 252 255 257 259 263 259 260 265 274 276 273 321 331 336 285 306 316 346 377 375 370 365 359 355 349 347 346
267 269 267 251 268 273 279 264 262 246 249 252 258 254 247 248 251 249 252 253 255 256 258 262 265 268 269 272 273 276 280 286 292 290 281 276 293 336 311 299 313 370 383 379 378 379 371 368 358 355 354 350 355 371
272 271 272 270 271 271 278 273 270 270 272 266 261 269 274 259 267 272 272 268 265 265 271 248 265 261 193 279 283 289 299 302 291 321 319 323 334 338 377 387 388 385 379 374 370 367 358 355 355 351 356 368 373 392
302 303 304 308 272 274 281 292 277 276 272 274 276 279 276 274 266 261 284 291 307 312 285 285 282 281 287 320 327 305 306 317 331 358 361 368 386 388 390 387 377 371 367 359 352 353 352 349 360 364 378 381 376 380
310 309 305 306 309 311 297 309 309 309 310 309 310 312 309 305 297 294 301 317 320 321 320 323 323 321 321 327 351 358 383 386 383 384 382 382 387 381 372 365 360 361 359 355 349 350 354 362 377 376 374 377 356 340
317 311 303 306 307 310 312 313 313 313 314 313 314 319 324 327 333 343 357 415 422 446 446 441 427 424 404 392 393 392 388 383 381 375 370 366 363 355 353 353 353 345 351 353 355 368 377 376 375 374 347 329 344 313
327 326 323 321 324 324 326 332 339 370 355 423 426 414 416 412 413 414 413 415 419 413 410 405 403 398 391 383 376 370 367 364 365 362 355 354 352 348 349 348 344 351 361 373 375 371 372 361 354 323 344 336 368 373
337 338 345 346 363 375 393 394 395 397 387 387 382 381 378 382 377 376 378 379 380 375 371 365 364 365 364 362 359 356 354 352 352 350 349 348 346 345 351 362 374 373 370 366 371 361 345 327 381 372 307 363 375 368
342 363 378 378 376 376 373 370 369 368 368 366 367 366 362 358 356 357 356 355 353 352 352 352 352 351 349 349 347 348 349 348 348 350 357 366 373 372 367 365 368 370 366 354 402 397 321 383 304 303 359 381 366 349
363 361 361 359 363 362 359 358 360 358 355 352 347 344 347 347 347 346 346 347 348 349 352 353 354 355 356 357 358 360 361 364 362 362 362 363 366 370 366 358 366 379 372 373 379 384 315 305 314 381 383 356 347 350
358 357 357 359 358 360 363 368 374 373 375 367 360 372 373 374 374 368 366 370 372 371 368 365 362 360 359 356 357 354 357 360 362 362 357 354 378 381 382 383 383 394 388 388 385 385 380 370 358 350 345 349 420 415
356 362 362 361 365 367 366 361 361 360 362 363 359 358 359 359 354 354 351 354 357 364 367 363 362 363 358 350 350 352 370 380 387 398 404 406 408 409 411 410 410 404 395 385 367 355 348 354 396 432 427 422 416 396

GFSWCAN_2pvu_pres_009.txt.gz
Presure
251 490 492 386 514 496 432 292 247 327 149 292 273 254 266 290 234 260 202 202 170 190 186 240 198 230 231 212 208 201 204 199 195 210 202 198 194 193 195 197 196 196 195 196 197 196 194 126 195 197 202 192 194 200
387 381 370 376 377 342 359 348 307 291 284 279 255 274 285 242 252 201 257 232 175 178 199 243 238 234 226 215 217 208 193 209 197 209 201 199 201 194 194 195 197 195 92 195 185 201 199 201 202 187 190 185 195 188
339 298 296 293 289 287 282 280 280 266 266 280 268 274 275 243 206 191 260 236 201 188 209 240 235 227 228 215 206 200 206 203 198 193 207 198 198 196 187 195 197 197 193 199 200 188 186 194 194 191 191 192 182 208
278 273 203 279 279 263 284 282 277 270 285 278 281 271 258 252 181 246 246 237 244 210 240 232 213 225 224 212 214 194 202 202 197 201 195 199 196 195 194 195 204 202 192 201 189 193 199 193 196 193 188 198 192 190
255 225 292 144 279 278 277 277 281 273 277 270 271 273 262 251 242 252 191 240 236 213 231 231 227 225 216 216 214 194 203 203 195 197 195 196 196 197 198 197 199 195 179 194 195 196 197 199 179 192 198 190 191 194
248 241 266 285 288 265 294 269 280 279 270 266 262 246 251 261 205 249 225 221 216 233 228 228 226 224 215 215 210 207 202 208 202 199 190 191 194 191 195 194 197 198 197 173 192 91 182 183 202 194 186 191 199 203
263 263 270 261 278 274 268 276 271 266 264 265 255 216 249 239 234 230 232 188 219 227 228 222 224 218 219 214 205 208 212 208 207 204 197 193 199 199 195 195 192 189 189 192 186 198 201 200 198 202 205 205 209 208
255 257 258 266 257 267 273 264 266 270 255 250 213 221 212 225 234 222 235 232 204 234 219 224 222 220 216 218 205 202 210 216 208 207 159 201 197 198 198 198 198 194 192 197 201 201 204 201 214 206 203 205 206 208
254 256 254 253 254 259 261 258 248 240 239 236 237 242 238 236 222 220 242 236 228 233 223 220 223 219 214 214 207 185 214 206 198 209 212 211 208 205 205 202 200 199 205 206 200 201 212 208 201 209 207 203 211 216
248 246 244 245 251 249 246 244 249 240 230 237 220 223 230 234 218 236 247 235 230 227 222 213 209 210 218 218 213 209 214 200 200 196 196 197 196 191 197 197 201 203 198 207 210 208 196 207 202 202 210 214 222 236
237 234 238 237 237 235 239 238 235 240 245 224 242 231 233 218 234 249 241 231 219 223 222 216 214 213 200 210 216 216 210 204 203 200 199 193 198 201 205 204 212 215 212 205 202 206 213 197 208 216 220 233 222 206
230 240 243 243 240 238 241 234 237 234 242 230 240 234 242 255 241 240 229 222 219 230 210 214 211 216 220 215 208 209 214 216 213 205 203 203 203 203 211 212 210 211 211 212 211 217 217 218 216 224 219 216 221 215
239 231 231 233 229 230 225 236 238 239 246 231 247 242 240 248 233 235 236 223 216 212 210 234 232 220 219 221 220 217 215 216 217 213 213 215 212 218 219 219 218 215 209 217 218 216 222 228 243 220 217 215 197 222
226 219 237 237 245 238 240 243 237 234 235 238 238 249 263 251 241 228 227 227 224 210 209 211 231 240 225 226 223 222 223 224 224 222 220 222 220 217 214 214 216 218 222 219 225 233 239 212 216 215 193 216 228 219
233 231 239 240 235 233 244 237 243 254 243 244 236 250 272 257 235 232 229 220 220 222 214 212 211 215 218 229 229 223 221 230 228 221 224 226 227 224 222 224 227 229 240 235 207 208 217 208 209 225 227 217 237 241
244 239 240 244 251 246 241 239 239 274 285 261 248 257 266 264 241 229 227 224 224 224 221 217 215 213 209 210 208 204 240 245 248 250 249 247 246 245 247 224 214 216 200 219 216 213 213 226 224 231 240 245 247 252
235 253 225 229 237 241 239 237 238 247 261 271 194 272 266 262 248 243 236 232 225 222 218 219 219 218 218 216 214 217 215 216 216 215 215 216 219 220 220 221 221 218 200 208 225 227 234 246 239 250 242 262 261 258
233 244 232 236 238 249 291 245 261 260 261 258 261 260 253 252 248 226 230 235 232 225 224 225 221 219 219 220 222 222 223 223 223 221 223 227 226 220 207 201 230 236 233 243 244 240 247 253 256 269 259 258 279 276
218 224 237 261 238 258 267 256 255 258 252 252 251 251 245 243 243 244 242 238 236 234 233 232 232 229 229 228 227 226 229 232 220 216 209 234 236 239 229 221 232 242 246 246 249 245 261 269 258 262 270 264 264 303
231 233 238 246 265 268 266 240 255 250 256 254 252 249 249 247 242 241 239 239 240 241 241 240 239 239 240 240 241 243 243 244 244 243 231 228 237 245 243 244 249 252 255 257 262 254 257 269 266 268 264 292 297 301
240 237 245 227 246 258 264 262 255 243 251 261 253 254 251 249 245 242 243 246 247 249 248 246 247 224 226 226 227 227 241 247 244 241 247 251 248 248 244 252 269 253 261 261 266 272 270 271 267 294 293 307 328 329
248 244 237 244 257 248 279 280 271 260 255 255 255 257 253 252 251 251 247 244 240 231 242 227 230 235 238 239 239 240 239 239 244 246 245 252 259 251 250 260 258 261 269 264 272 278 279 291 304 323 332 333 340 398
236 243 268 250 240 241 241 233 244 249 269 270 266 260 254 255 256 255 252 253 253 252 255 254 250 249 251 253 253 252 250 262 265 265 264 268 269 255 255 266 270 284 287 287 292 304 321 338 333 337 373 398 393 386
292 283 236 272 273 244 235 229 231 234 271 250 261 282 276 268 271 269 270 267 263 258 253 271 279 279 277 272 266 262 262 264 268 266 268 277 282 288 293 285 290 311 320 333 340 336 336 391 398 394 391 381 376 373
291 270 269 274 273 273 276 274 273 263 254 244 242 241 241 245 255 259 261 261 265 271 280 267 261 265 265 256 259 263 268 286 288 287 288 275 280 303 308 309 324 341 340 396 404 400 394 392 390 379 374 369 362 361
315 304 295 290 289 289 294 290 277 272 276 273 280 275 272 268 266 260 255 262 265 273 278 280 281 281 287 298 299 291 287 291 305 314 318 317 327 342 353 394 397 399 406 398 392 383 378 375 370 364 362 367 373 376
326 329 333 328 338 321 312 305 300 298 297 296 292 291 292 295 296 295 291 293 297 298 297 301 303 312 322 331 335 339 342 343 347 354 399 404 411 405 400 396 386 378 371 368 365 363 363 365 369 371 370 366 370 371
308 323 328 332 335 346 345 352 347 338 328 326 325 325 326 327 325 335 341 345 343 343 340 338 338 343 351 386 350 387 391 392 390 386 382 378 375 373 372 369 368 369 369 369 370 370 367 365 367 368 364 362 387 402
368 372 389 379 375 359 327 324 324 379 345 338 338 347 346 345 342 344 350 350 350 350 384 353 391 389 388 388 383 379 378 378 376 372 371 374 373 371 373 373 370 369 367 367 369 368 365 363 364 379 395 400 396 414
378 371 368 367 364 363 361 363 369 376 376 393 394 394 389 389 392 395 393 393 392 390 391 393 391 386 384 383 382 388 390 388 386 380 376 374 372 369 367 368 368 367 367 372 377 382 389 395 396 392 386 385 381 396
371 382 381 379 380 383 381 385 386 384 384 385 386 387 387 389 391 390 387 385 385 382 380 378 376 375 372 370 368 366 367 369 368 367 368 366 365 367 371 372 371 386 465 484 483 481 476 438 364 362 362 357 351 351
331 332 379 385 383 379 376 375 376 378 382 385 387 383 378 374 369 368 368 367 366 368 369 367 368 369 367 367 360 357 366 362 359 369 379 368 361 357 422 474 493 370 361 357 359 367 397 502 492 482 468 378 369 372
372 368 371 372 376 377 306 367 365 363 360 359 360 370 377 371 362 359 366 366 367 362 356 352 354 356 365 375 367 351 398 396 368 350 342 413 473 477 361 353 351 345 342 354 363 375 396 361 351 358 374 430 439 434

GFSWCAN_2pvu_pres_012.txt.gz
Presure
346 384 129 404 328 333 370 399 391 333 284 361 355 345 348 241 209 223 274 150 207 260 190 184 252 212 187 198 240 241 227 223 213 205 212 198 206 195 196 200 193 201 198 198 194 125 124 195 196 195 197 196 197 197
430 424 418 418 157 461 189 181 184 503 486 358 340 333 263 233 271 254 274 161 173 235 221 213 246 243 194 253 196 229 231 221 215 206 212 202 194 204 199 198 127 139 95 184 196 198 195 85 193 195 194 194 195 194
524 525 515 472 498 488 486 462 395 337 361 338 317 199 271 187 255 262 177 184 168 161 247 247 243 234 224 242 228 235 219 229 211 203 210 208 193 203 205 198 197 182 192 194 190 199 198 194 191 197 195 191 189 193
445 442 422 448 507 366 497 489 376 350 338 290 291 281 258 264 270 250 218 170 151 105 242 200 215 186 230 242 190 227 223 220 215 208 206 202 201 197 204 201 199 201 199 195 192 199 199 205 191 190 192 192 191 191
311 336 352 345 345 335 328 295 290 286 273 276 283 272 254 252 249 262 216 235 211 240 235 242 173 176 242 235 236 225 224 223 212 205 206 192 205 196 201 200 204 202 197 197 196 196 201 201 192 192 196 190 184 176
291 145 282 295 291 288 290 276 276 273 264 238 270 255 278 266 258 235 190 256 240 256 213 215 189 185 234 232 235 227 229 223 214 209 202 198 206 201 197 203 199 195 194 191 194 197 195 197 198 183 193 193 196 197
270 275 276 273 275 272 271 268 266 267 241 259 262 243 261 254 258 230 236 185 188 205 217 203 197 192 207 230 233 227 224 224 214 210 202 201 205 202 199 197 194 191 194 195 200 202 198 200 201 190 191 197 201 201
265 265 267 271 275 276 268 268 266 266 258 254 248 268 252 240 244 231 236 216 247 237 228 199 196 219 221 231 233 227 220 225 215 211 206 155 204 205 205 199 198 197 194 192 193 199 192 199 199 192 202 200 203 196
283 267 276 259 255 256 272 277 262 257 274 260 262 261 259 243 243 229 236 200 198 237 247 188 226 219 233 224 228 225 222 220 217 212 209 210 204 204 204 185 206 207 209 207 204 205 208 195 198 202 179 193 211 196
259 266 254 278 266 274 254 265 259 273 275 266 258 249 250 244 248 234 238 234 231 201 217 237 191 221 231 228 223 224 223 219 219 216 195 196 200 202 213 210 203 206 206 195 195 197 200 202 200 191 212 209 190 209
250 251 261 261 252 263 258 257 261 251 258 256 239 246 247 221 199 235 204 210 224 230 228 206 229 201 222 224 225 221 224 223 219 217 214 202 189 198 210 205 200 200 200 204 203 200 194 197 213 209 198 215 209 209
250 251 253 251 255 260 261 261 243 254 244 236 243 235 238 226 238 230 229 224 223 232 223 231 234 216 222 223 219 218 224 226 219 213 214 208 201 200 208 210 207 206 204 204 210 214 213 200 220 209 214 221 219 221
243 244 249 247 248 251 243 260 240 249 247 237 234 237 238 228 219 218 229 228 227 212 214 241 239 224 227 222 219 220 215 214 213 214 215 213 209 213 215 217 217 216 215 214 217 219 205 214 218 215 224 223 226 231
236 235 237 234 235 247 237 242 236 237 239 234 230 238 239 237 233 230 229 230 234 219 242 238 234 230 223 228 219 222 223 221 220 219 217 211 212 212 213 215 218 219 217 214 218 219 217 223 227 233 201 211 244 231
233 238 240 240 232 236 245 231 233 233 241 240 244 225 219 241 228 232 238 250 222 234 245 240 230 229 224 221 222 220 219 220 221 216 218 220 222 222 223 222 221 223 223 228 232 235 239 244 249 211 218 204 223 228
235 236 233 231 234 232 229 230 233 235 233 237 241 247 240 237 245 237 229 237 246 238 233 241 233 227 226 226 224 223 218 218 220 228 239 240 239 237 234 230 224 237 244 249 252 236 232 218 202 217 228 228 212 239
227 224 225 230 236 240 237 239 239 231 238 241 241 241 243 240 231 237 254 256 246 243 234 233 235 237 238 231 227 224 219 218 217 214 213 213 213 212 213 215 217 217 220 222 223 198 214 226 229 229 236 241 240 246
233 239 230 234 241 241 234 234 231 233 235 241 257 290 252 246 246 235 235 246 260 251 247 244 236 231 233 228 225 223 223 224 224 224 224 225 225 224 222 222 220 210 194 217 228 229 228 237 245 245 248 252 254 251
258 244 237 232 240 248 234 239 247 243 248 247 237 243 263 272 268 250 246 250 250 263 256 245 241 235 235 233 232 230 226 226 226 224 223 219 208 215 212 232 234 231 224 239 245 244 250 249 241 246 251 252 257 256
229 224 243 248 234 243 221 224 239 242 243 279 268 267 265 263 259 260 264 261 258 256 252 250 248 246 244 243 241 239 239 238 237 236 236 236 238 237 235 243 248 230 243 240 246 241 240 250 249 254 258 258 269 271
239 231 250 242 253 239 235 238 259 255 233 278 268 259 258 259 258 257 254 251 256 253 249 250 248 246 244 241 242 243 242 242 241 243 232 248 247 248 247 246 245 247 240 247 251 252 251 258 261 275 272 266 273 287
253 247 254 251 272 245 239 265 252 239 264 258 260 255 246 257 258 264 265 262 257 254 250 247 245 244 244 243 241 243 245 251 252 251 251 255 255 250 240 245 249 250 255 256 259 267 278 277 268 278 295 299 298 312
247 240 241 258 252 244 247 247 235 244 243 241 246 259 261 261 257 253 252 257 257 257 257 258 258 257 256 254 252 250 249 242 239 245 250 252 252 254 257 261 263 266 278 284 273 265 276 286 297 296 310 376 395 415
237 232 243 242 248 258 253 254 243 249 241 241 242 253 273 258 262 269 268 267 262 262 264 264 261 259 259 259 259 258 257 259 260 261 262 265 267 263 264 265 266 266 274 284 292 299 315 332 343 399 413 413 407 392
277 280 302 289 275 290 286 252 247 251 248 271 256 264 262 255 243 235 233 236 239 245 264 270 273 274 274 274 275 273 273 272 267 265 279 270 267 266 272 282 282 288 293 308 320 346 353 420 408 396 383 380 376 380
316 338 340 326 290 287 302 301 265 265 263 271 258 270 263 245 247 253 251 250 257 268 277 263 258 260 261 261 260 261 264 266 271 265 262 275 285 291 298 310 319 347 369 395 388 386 385 381 378 377 381 385 383 379
311 312 314 315 325 333 347 344 311 301 299 301 299 285 290 286 283 280 282 286 288 288 285 279 277 282 286 290 292 295 295 296 301 312 322 327 349 358 362 395 393 389 387 384 381 378 378 383 385 379 375 374 376 379
314 319 314 308 309 317 326 331 337 346 351 352 315 306 304 306 307 307 309 312 314 314 316 318 320 320 325 327 325 323 356 361 362 357 358 391 392 388 388 384 382 386 391 391 390 384 379 375 370 371 373 377 487 500
318 328 325 323 316 398 392 389 389 390 338 388 381 356 344 366 356 352 347 349 367 365 362 356 349 350 355 345 367 362 360 389 407 407 406 402 400 394 393 389 385 383 378 375 372 369 369 369 377 366 503 386 367 360
330 354 386 383 378 376 347 400 397 386 389 387 386 389 385 387 363 393 394 390 382 400 410 414 411 410 408 404 399 395 390 387 384 383 380 379 378 378 374 369 368 369 364 365 375 367 364 395 490 422 362 350 348 351
348 349 348 347 347 348 349 351 354 356 396 396 398 398 396 397 397 397 400 401 400 395 391 388 387 382 380 378 376 376 375 377 375 370 367 367 362 364 379 373 365 388 397 370 349 343 439 456 365 354 360 348 340 339
323 322 327 392 391 394 390 384 382 381 383 387 387 353 346 381 378 377 375 373 372 375 380 376 372 370 377 372 366 361 357 357 375 373 375 384 393 388 384 376 371 368 360 349 339 415 402 381 369 364 352 346 345 350
389 385 380 378 377 378 377 374 370 366 367 375 378 384 391 393 390 383 377 372 366 362 370 368 361 356 353 363 374 367 367 378 384 378 369 365 360 361 363 377 386 382 381 384 389 398 397 384 374 367 362 361 367 397

GFSWCAN_2pvu_pres_015.txt.gz
Presure
360 353 353 349 358 360 362 390 382 434 256 177 513 322 355 356 304 139 302 280 270 156 175 247 237 239 245 251 231 229 231 207 253 248 190 236 231 213 203 211 201 200 196 202 194 202 201 191 194 196 198 198 196 195
355 354 353 369 362 382 399 372 379 176 189 498 172 374 188 353 238 167 292 278 242 274 236 261 265 261 266 261 246 252 248 249 243 243 185 234 232 208 202 210 207 198 198 186 188 161 191 192 197 196 197 197 199 199
381 377 374 380 260 395 190 150 380 416 416 201 310 172 349 347 160 171 170 279 282 284 250 271 281 248 267 262 249 187 247 252 244 249 240 226 228 213 200 213 200 205 202 179 200 197 193 190 190 191 191 195 198 200
437 252 419 407 339 139 383 151 341 149 343 476 240 347 353 292 273 256 287 247 222 233 182 190 246 264 176 233 234 248 243 228 197 222 237 221 225 216 199 209 208 195 202 204 151 178 197 195 197 197 159 196 195 195
512 504 435 417 231 158 333 164 500 514 163 382 355 325 300 272 236 242 239 163 220 225 178 220 218 226 245 203 225 241 236 192 195 199 221 224 229 216 207 153 209 210 197 201 202 201 199 197 196 196 193 191 184 192
415 466 524 487 487 498 500 500 137 529 154 348 308 282 279 247 247 235 165 214 225 160 158 206 173 175 238 228 232 231 229 231 252 234 229 220 215 228 212 207 191 196 207 199 195 198 203 199 196 193 191 194 198 199
309 356 356 441 454 507 546 517 377 353 308 295 289 274 270 274 261 252 187 231 163 240 208 188 240 236 226 229 173 213 221 193 237 205 228 219 216 221 217 208 203 206 199 204 203 198 194 192 191 192 192 192 193 198
245 297 305 334 337 309 321 306 305 294 280 255 250 228 218 254 231 231 226 216 232 243 193 191 203 209 230 199 227 216 189 231 238 236 233 183 222 223 218 207 206 204 202 202 203 203 201 200 199 199 202 204 207 207
280 274 273 281 284 281 280 274 279 250 242 257 255 220 218 225 215 230 226 220 215 178 190 193 194 233 234 234 230 222 189 187 224 233 238 231 226 222 217 212 212 213 207 201 202 203 204 208 207 207 197 191 203 201
258 267 274 259 271 282 279 253 279 281 264 273 255 237 212 266 270 211 239 239 252 245 178 171 175 225 222 207 212 187 201 197 215 237 237 230 225 219 220 219 213 212 210 205 206 205 209 214 217 215 197 200 203 204
255 272 257 264 254 257 274 248 243 263 277 269 258 280 251 258 250 268 238 252 235 232 245 242 234 219 205 218 237 214 204 205 215 236 231 232 225 219 220 218 214 213 213 210 202 201 193 193 210 208 205 204 212 214
269 277 265 272 261 266 245 236 244 252 229 234 265 263 254 242 244 230 242 258 217 224 225 234 237 210 228 224 220 228 235 235 209 236 230 223 219 220 221 219 217 218 217 215 215 211 204 204 206 210 213 214 211 200
257 262 263 253 257 260 257 260 278 270 245 260 250 249 250 226 236 230 233 233 244 248 224 241 224 224 239 235 226 230 231 236 211 223 231 223 217 218 223 225 225 222 219 218 218 221 222 221 219 214 204 219 227 231
247 252 263 261 253 251 261 261 260 253 250 254 246 268 248 238 269 235 231 229 229 241 232 231 234 234 227 226 219 230 240 235 220 225 229 224 222 221 222 222 225 223 218 215 218 221 222 223 224 225 227 238 244 222
244 241 241 243 256 258 253 247 248 237 228 236 240 239 248 235 239 246 243 229 222 226 224 211 227 227 222 223 218 221 231 238 234 220 226 229 225 223 224 225 223 221 219 219 220 221 224 234 243 241 226 218 225 220
231 231 237 239 238 243 239 245 257 251 247 253 246 243 246 230 235 227 232 236 235 224 228 225 219 219 229 240 229 223 226 247 239 233 231 229 228 228 225 221 213 217 229 235 235 232 227 220 219 225 228 203 221 229
232 229 228 229 226 222 234 235 238 230 227 234 238 233 232 230 231 231 231 234 232 225 226 233 234 228 231 236 228 230 240 251 240 233 227 225 224 224 224 223 220 216 220 220 219 217 226 227 200 224 231 228 217 235
234 236 235 234 236 233 232 237 241 234 234 234 235 238 237 238 238 238 236 238 225 224 242 239 237 236 236 236 254 251 245 235 236 241 236 232 228 225 225 225 228 231 235 233 232 232 232 231 232 235 234 240 234 249
235 242 239 240 238 236 235 234 228 226 230 231 232 230 232 235 238 240 242 246 242 236 233 232 231 243 249 250 251 244 239 242 240 238 236 233 231 234 234 232 233 235 237 237 236 237 241 243 244 245 249 258 257 257
234 229 224 226 228 235 226 234 242 243 240 236 237 236 234 237 237 243 255 276 270 257 248 252 250 243 242 244 246 247 253 254 249 248 246 246 246 244 242 239 238 242 243 245 245 244 251 251 257 257 253 254 260 260
228 231 230 235 235 252 263 242 240 240 254 246 249 263 261 241 237 236 242 238 238 267 272 270 263 254 245 243 247 250 258 259 258 258 255 254 254 253 251 252 252 248 249 256 254 251 260 256 253 260 261 260 263 265
255 256 244 253 237 236 243 238 249 250 253 245 225 221 228 251 247 246 248 269 272 264 262 263 264 262 262 262 264 265 263 259 259 258 259 258 256 255 255 256 254 254 255 260 258 258 259 260 259 262 264 268 274 282
247 253 251 249 243 237 237 235 236 240 244 254 254 245 233 236 242 240 240 248 254 260 260 260 261 260 258 252 260 262 261 261 260 261 261 261 262 261 262 262 260 259 260 261 263 264 265 267 274 277 280 282 281 291
250 244 245 260 252 239 243 244 249 254 258 240 250 257 262 255 253 245 246 242 245 248 248 255 263 265 263 262 261 259 260 260 260 261 263 264 263 263 263 263 265 267 268 272 276 279 280 286 280 284 292 300 307 383
256 243 292 299 257 246 269 238 242 254 242 242 253 270 256 250 257 264 262 263 262 259 252 257 261 262 270 269 229 269 240 240 242 243 258 263 263 272 274 269 267 265 269 274 278 284 288 292 301 313 368 390 389 385
292 296 282 284 319 290 275 266 280 277 274 257 275 271 261 253 243 264 267 261 255 258 257 258 256 249 261 268 274 264 261 259 260 261 265 271 274 278 283 285 287 288 292 299 311 339 354 374 392 394 394 394 395 392
305 307 305 302 299 310 304 309 318 341 333 299 290 301 301 303 296 295 298 297 278 276 280 268 265 272 276 274 275 277 277 277 284 288 291 292 296 302 312 320 336 353 405 383 369 341 406 403 397 395 389 386 378 378
290 309 302 301 302 310 322 326 330 339 350 354 347 333 337 345 347 361 355 342 344 266 260 260 253 306 314 317 316 311 311 313 315 318 387 381 385 414 376 414 399 406 403 399 392 387 383 380 379 375 374 370 381 360
314 320 338 342 323 343 335 359 385 386 386 391 398 396 343 394 389 392 350 341 340 343 354 383 381 376 376 367 374 373 376 383 338 335 415 410 403 396 395 388 386 384 382 381 378 373 373 370 369 385 385 386 390 383
317 327 336 340 330 370 382 388 376 360 356 361 365 368 370 371 387 401 398 397 396 396 402 408 411 412 409 410 410 412 405 401 398 397 391 387 382 381 379 376 372 367 367 371 375 378 387 387 382 378 371 364 358 353
319 328 336 376 384 371 356 346 383 403 402 400 400 400 400 399 399 398 398 399 397 393 392 393 392 391 390 386 382 380 380 384 382 379 377 374 369 366 371 376 377 378 384 386 379 372 367 364 369 373 375 374 372 370
325 356 376 349 337 391 392 384 378 371 369 376 380 382 381 379 378 379 381 383 385 392 397 396 395 390 388 383 378 375 376 369 366 366 373 376 376 380 384 378 372 368 370 380 383 383 384 396 456 460 459 459 453 448
376 354 388 381 375 377 377 380 392 382 369 372 377 387 388 392 380 371 369 378 383 376 371 377 388 389 378 367 366 370 376 375 374 376 374 368 366 375 386 407 460 467 466 464 461 460 457 455 455 458 463 468 470 470

GFSWCAN_2pvu_pres_021.txt.gz
Presure
359 358 352 341 325 318 312 315 315 317 332 330 333 352 369 412 398 212 269 164 273 257 243 148 145 138 141 220 203 200 211 180 181 190 215 210 215 198 208 216 206 178 224 267 252 209 221 217 208 202 198 207 209 202
345 339 333 325 318 314 307 304 309 314 319 327 336 345 354 379 421 363 315 295 280 248 263 244 143 224 227 223 221 230 195 216 207 220 217 218 212 217 210 227 192 197 203 259 251 186 228 218 216 211 208 202 202 203
340 332 334 329 322 316 311 311 308 317 321 327 324 354 367 363 414 336 325 241 296 268 246 253 196 235 221 224 215 226 219 208 216 203 211 214 216 213 205 205 187 204 225 250 249 221 211 220 213 206 204 202 202 206
354 336 346 346 337 330 325 324 323 339 337 348 362 359 381 380 405 417 333 324 282 268 256 262 222 231 233 170 223 214 200 210 206 207 204 217 211 205 202 200 207 250 243 245 244 235 215 219 215 209 187 203 206 204
352 360 353 348 346 346 346 347 350 354 353 353 376 376 392 385 392 406 362 313 296 272 258 260 218 236 238 217 194 210 212 208 187 203 196 203 214 202 184 201 268 241 238 245 245 237 228 223 216 138 210 202 204 208
209 360 355 352 353 356 355 364 369 381 386 385 390 386 396 396 412 371 333 305 296 286 145 199 254 243 235 225 223 201 212 222 210 208 208 201 211 196 180 242 248 232 240 243 242 237 227 224 125 222 213 209 204 203
376 362 215 357 356 358 364 386 382 404 394 392 386 191 432 246 474 345 316 301 291 260 251 244 243 246 160 242 231 222 149 191 210 209 203 226 201 190 217 238 191 236 241 234 235 220 223 115 224 224 219 215 212 209
424 414 409 261 403 382 377 416 459 433 425 437 377 498 554 497 283 305 294 292 285 278 193 174 225 199 227 206 174 218 227 225 214 218 258 246 249 242 232 230 228 228 237 231 202 197 230 230 229 226 223 223 225 224
414 409 379 354 391 338 434 470 480 467 489 466 474 413 360 273 307 293 287 277 275 271 266 184 241 237 210 217 190 228 214 231 221 225 237 185 184 248 239 197 233 232 233 245 242 237 233 226 230 231 230 225 223 224
494 447 446 415 413 468 481 476 442 391 167 331 165 265 274 267 267 278 269 274 270 276 268 263 264 201 232 237 233 233 219 210 226 243 238 231 172 180 227 212 222 227 225 216 212 197 232 236 211 231 234 234 229 224
539 529 522 529 476 378 356 326 226 258 262 262 264 251 239 257 227 256 255 253 258 243 246 255 250 248 214 235 192 176 234 211 192 234 219 233 227 220 217 211 215 222 224 224 214 220 218 197 216 224 233 235 229 226
337 344 331 316 283 267 255 265 258 262 250 246 237 252 250 250 250 243 234 253 239 240 236 221 236 219 209 229 199 171 170 172 177 186 229 229 227 222 221 219 224 229 221 220 222 214 195 192 221 220 213 231 231 224
273 275 278 284 267 253 272 251 248 266 233 257 245 250 254 232 243 219 233 216 231 222 220 222 170 229 229 233 231 225 235 239 175 218 181 204 222 225 224 227 228 222 219 224 228 209 220 230 233 234 233 226 223 219
255 248 257 261 277 263 239 262 246 240 247 252 235 227 192 189 198 234 234 233 211 232 232 220 214 240 209 228 243 234 241 177 179 175 236 234 232 224 227 229 231 226 218 224 226 229 220 222 222 226 232 233 234 236
248 245 259 257 253 248 256 232 250 252 227 243 234 248 254 193 224 210 208 248 231 229 241 219 252 229 228 218 230 230 229 220 210 243 241 239 235 231 227 223 221 221 221 229 232 233 230 221 224 227 223 223 226 237
222 266 243 246 247 229 247 248 236 230 250 262 219 262 247 227 244 244 209 240 248 248 229 240 230 258 247 239 244 223 241 235 227 231 237 238 231 230 230 226 222 223 224 226 231 228 224 226 233 239 241 237 241 248
221 220 225 229 229 257 235 236 250 247 228 274 245 224 236 257 253 220 230 255 250 246 249 253 242 246 234 247 247 221 222 237 244 244 242 233 229 229 235 236 233 239 238 229 225 226 230 233 239 249 246 245 251 253
238 225 216 221 226 228 234 224 252 230 258 230 218 236 220 223 261 259 223 239 254 247 240 258 237 220 223 227 222 221 225 221 224 245 239 223 233 231 232 232 228 234 226 230 232 237 247 246 248 249 254 252 247 246
254 249 250 240 226 224 232 230 235 229 272 231 244 230 269 229 227 233 267 228 239 248 258 233 242 231 217 228 225 225 236 243 248 242 241 222 234 235 233 236 238 241 247 243 243 245 245 243 245 242 240 241 251 259
237 238 236 231 234 238 246 245 248 247 243 243 244 244 228 239 234 240 241 242 234 255 237 255 251 254 234 232 240 236 235 236 232 234 236 248 243 238 239 243 246 248 248 246 246 245 244 250 252 252 275 275 271 269
239 239 236 229 229 235 236 234 231 226 225 245 244 251 255 257 259 261 262 260 238 241 248 242 239 240 240 240 239 240 245 259 249 242 243 243 245 249 249 247 243 246 254 255 259 269 277 277 277 274 272 266 266 277
240 239 240 235 237 238 241 239 240 236 237 234 235 236 238 241 242 242 238 237 243 247 247 249 252 254 255 253 249 247 246 245 247 247 248 247 246 244 250 274 250 252 264 273 278 280 265 262 264 265 261 264 266 261
228 227 230 231 237 244 240 245 246 246 245 245 243 241 240 241 241 241 241 244 244 245 245 246 245 246 247 247 247 248 249 249 249 249 252 245 251 251 255 258 259 261 263 266 273 275 273 273 269 266 268 270 267 273
244 241 236 243 241 241 241 239 240 248 245 242 241 243 240 240 241 239 236 239 245 239 238 245 247 252 250 244 249 253 257 254 254 258 262 263 261 264 265 265 266 266 262 254 253 255 272 271 266 276 277 281 285 289
254 246 257 265 256 246 264 264 269 271 271 251 252 256 259 261 268 273 271 274 281 283 277 265 263 271 253 247 246 252 254 259 258 251 253 254 245 242 251 273 273 269 268 269 269 276 279 281 284 288 292 295 302 306
211 262 246 246 255 262 261 253 259 272 269 272 276 254 260 260 260 260 261 264 267 264 264 266 264 263 262 259 259 256 249 263 272 268 263 267 269 272 279 288 294 297 289 284 283 291 295 300 307 316 334 358 381 397
257 259 261 266 264 261 240 249 294 268 267 268 275 280 324 326 325 326 331 290 289 294 290 284 285 289 290 287 282 279 283 288 292 307 308 300 302 313 319 317 312 308 308 316 330 347 357 354 351 392 407 412 407 402
281 285 308 310 309 306 333 331 344 341 340 334 338 336 347 343 344 355 359 354 350 349 347 343 342 345 344 346 340 333 332 338 352 353 352 352 354 354 353 352 348 342 335 333 410 408 413 407 403 398 394 391 388 389
298 307 302 304 320 331 336 339 352 353 351 351 359 366 360 375 426 430 429 421 426 415 410 415 406 393 386 390 394 397 400 401 403 410 418 426 426 427 421 416 412 411 409 407 404 401 398 396 394 394 393 392 392 397
301 301 308 316 329 328 323 322 329 337 355 347 404 425 420 415 412 409 408 408 407 410 415 417 421 424 427 428 426 424 423 419 417 412 408 407 402 400 395 395 392 393 396 403 408 415 426 467 475 535 537 536 535 532
302 305 319 326 325 325 330 339 345 377 415 408 400 392 388 387 381 384 412 413 403 398 399 390 378 380 385 389 390 398 409 417 407 395 395 402 399 396 395 468 505 540 543 546 548 547 538 523 511 503 498 494 491 490
340 337 335 327 324 321 326 392 403 398 393 381 378 391 393 388 453 456 449 440 438 419 380 398 385 356 353 428 420 406 398 391 387 385 385 508 539 544 415 397 380 374 380 395 517 505 498 495 647 643 631 617 604 591
301 305 310 322 329 395 401 395 387 375 365 376 399 414 454 444 436 433 434 433 429 425 419 415 406 397 390 383 380 383 384 412 530 512 405 384 371 365 359 356 354 357 359 361 361 367 464 484 482 480 483 606 624 611

GFSWCAN_2pvu_pres_024.txt.gz
Presure
395 434 452 430 395 383 396 389 346 317 315 306 308 323 378 123 431 382 326 331 289 257 137 245 192 194 218 221 217 213 222 211 186 189 186 204 203 209 215 204 199 198 205 221 227 188 188 208 242 253 198 227 221 217
378 392 396 414 418 349 328 320 313 311 307 310 322 360 373 381 424 369 111 322 298 259 261 118 117 129 213 206 225 216 209 216 224 226 209 204 206 205 192 194 216 223 213 217 196 200 187 229 230 258 249 193 225 216
341 342 342 328 322 322 316 310 307 310 313 331 336 348 367 379 403 360 123 120 155 234 257 249 235 217 188 138 173 227 210 215 200 200 204 206 210 193 197 205 202 217 202 225 200 194 217 210 243 256 248 240 198 228
333 324 321 319 314 311 311 310 309 318 321 324 325 332 356 374 393 352 133 280 338 263 254 252 244 173 145 222 192 233 228 206 199 188 197 202 210 195 210 201 222 196 208 216 215 211 203 250 240 246 252 243 240 231
328 321 323 310 312 307 307 309 310 312 312 318 322 329 337 360 380 399 307 317 321 272 261 239 252 238 234 226 221 216 222 219 211 209 207 213 210 211 210 217 212 205 207 211 206 218 212 252 237 243 242 245 236 230
335 327 318 315 311 306 306 307 308 309 311 310 320 326 335 352 365 408 323 314 316 305 257 251 237 250 237 227 224 221 199 211 207 205 210 212 212 212 197 211 214 200 212 192 223 221 202 249 234 238 237 239 235 232
356 344 338 327 319 312 311 306 300 174 319 319 323 331 335 357 362 393 341 335 326 316 265 254 239 246 250 240 196 223 225 222 220 217 205 205 213 210 196 209 217 205 204 191 212 225 241 229 233 205 230 232 234 232
352 354 352 350 348 345 337 330 328 324 236 331 345 350 365 358 365 268 337 329 314 308 290 264 253 237 226 256 238 220 218 197 187 220 195 212 189 191 204 214 219 211 221 209 231 207 223 223 234 237 239 228 211 206
365 358 215 171 361 367 367 371 379 381 373 316 368 377 380 328 377 476 323 306 299 295 301 268 163 174 234 240 248 246 229 208 227 212 218 209 193 206 215 230 214 203 210 233 236 234 226 232 234 230 207 218 232 231
243 168 397 402 407 407 402 170 397 411 411 384 377 382 388 378 166 329 298 297 302 295 295 281 258 259 245 233 239 243 239 229 169 218 202 216 226 225 217 211 209 181 238 247 241 231 234 236 231 229 231 219 213 193
401 400 265 419 392 477 406 404 410 403 394 385 386 452 425 364 323 305 297 296 287 285 281 247 260 183 244 214 227 234 232 214 225 220 220 225 227 222 250 239 232 217 225 223 242 249 230 221 220 221 226 230 223 221
527 518 516 495 428 161 374 365 369 271 164 271 346 341 315 300 293 291 285 276 273 276 277 278 242 270 217 230 239 250 232 229 218 193 230 222 170 176 225 214 223 244 237 232 237 232 225 218 220 221 224 230 224 223
295 292 290 290 285 276 279 268 267 265 264 265 267 268 263 278 250 304 273 270 275 266 263 253 246 249 228 219 224 217 191 238 231 222 199 216 214 185 209 180 223 226 235 232 237 230 218 224 224 216 212 224 225 222
263 278 268 270 275 269 264 270 272 254 262 255 252 262 202 225 224 235 248 250 212 254 233 261 250 246 239 241 209 229 230 236 216 175 176 175 176 183 184 182 178 238 239 242 230 234 231 227 223 226 233 229 224 222
271 265 253 252 257 253 259 225 237 246 256 228 264 229 242 248 234 253 207 231 235 220 241 244 264 242 232 227 246 238 229 244 235 210 227 231 223 225 195 179 190 220 233 228 226 224 232 234 233 232 228 227 226 232
245 240 255 269 240 214 258 224 251 255 234 261 218 258 201 209 212 216 252 207 209 256 261 228 246 253 239 237 233 239 234 247 223 220 247 235 241 248 229 228 235 222 224 235 244 242 245 244 243 229 233 238 235 230
248 256 224 220 222 236 232 253 242 270 213 226 267 252 256 217 211 196 243 252 225 257 254 243 237 249 247 236 205 208 224 226 232 230 212 236 235 231 235 242 247 238 235 234 238 243 243 239 235 228 227 226 239 243
231 227 254 233 267 220 236 257 250 253 263 239 265 233 256 262 266 224 267 250 214 207 263 248 249 238 235 250 243 237 208 239 231 233 247 230 233 246 222 222 224 222 219 224 234 234 232 226 227 235 243 236 242 247
233 225 248 224 235 256 225 237 250 228 235 263 222 223 253 270 226 221 224 240 264 251 231 243 261 245 236 234 241 232 248 223 239 247 251 242 227 243 248 233 226 227 228 234 248 243 246 231 237 246 245 247 246 245
225 226 242 222 257 222 227 229 216 236 229 229 238 238 229 219 234 248 231 242 228 236 240 264 247 262 232 269 253 259 251 252 237 217 219 217 231 229 224 225 226 244 242 241 241 256 260 250 248 248 248 248 248 249
227 225 221 226 231 226 222 226 235 234 233 232 236 227 221 225 222 223 223 225 271 251 230 253 242 223 231 228 229 233 242 267 257 243 244 236 234 235 233 234 239 248 241 242 261 257 254 251 248 250 245 242 240 243
236 235 231 220 233 232 229 228 233 239 243 248 252 257 262 266 266 251 249 240 231 238 235 241 236 237 244 259 252 244 239 248 247 239 255 247 238 245 247 245 248 254 263 251 251 253 253 245 252 254 256 275 269 267
229 232 234 235 238 239 242 242 238 238 239 233 233 233 236 238 242 241 245 247 251 255 258 257 256 256 255 261 263 264 264 257 256 259 260 263 261 257 254 245 245 250 251 251 253 257 263 267 269 261 259 256 251 260
245 242 238 235 231 235 232 233 234 233 233 234 237 239 240 241 242 240 243 243 244 243 244 242 238 237 238 240 243 245 244 245 246 243 244 245 245 250 255 254 254 239 239 240 257 262 264 261 252 266 273 279 285 294
243 213 240 242 245 246 230 215 231 228 239 241 240 243 245 246 244 248 250 251 249 249 249 249 248 247 247 248 250 251 253 252 257 260 266 267 277 277 275 271 272 273 256 267 274 265 266 278 288 291 289 307 325 326
242 244 244 249 254 256 245 244 245 246 251 253 265 266 268 263 266 273 275 276 282 284 287 286 285 279 268 278 272 258 256 258 259 261 259 260 257 268 266 266 267 271 278 287 292 298 309 314 333 333 349 357 383 407
230 254 260 220 206 233 240 266 269 270 269 240 244 246 273 272 268 274 279 280 275 277 267 265 278 278 278 280 282 289 290 290 289 291 296 298 299 318 316 316 321 328 341 342 344 346 395 397 430 429 426 423 422 420
264 259 267 260 249 253 253 255 262 281 308 310 319 342 357 358 351 349 358 369 379 384 379 380 392 391 385 386 378 379 379 375 369 424 422 416 407 403 394 392 396 431 431 433 430 427 423 416 411 429 439 545 549 561
254 277 283 276 278 280 279 312 333 329 332 348 351 349 347 336 342 363 437 429 429 428 428 425 425 426 427 428 428 435 435 432 430 433 436 436 434 432 426 421 418 414 404 397 400 445 572 552 400 389 381 379 494 503
278 277 276 278 281 314 324 325 333 355 351 344 338 333 345 429 422 414 404 397 398 405 401 400 399 401 411 403 400 398 396 394 390 392 392 393 391 397 380 410 404 399 441 472 406 390 378 371 370 373 377 376 374 375
284 286 304 321 318 320 330 326 317 313 348 354 353 419 410 400 392 385 384 396 399 398 463 460 454 448 448 438 392 381 384 381 411 423 418 403 393 387 477 476 420 389 376 367 365 384 402 404 405 405 399 393 386 379
309 312 316 329 321 315 343 334 330 335 347 407 405 394 380 380 417 424 460 453 443 441 439 438 439 437 434 432 424 414 404 397 391 386 386 481 435 397 381 369 360 360 373 373 368 368 371 374 379 390 402 402 396 387
321 317 308 314 340 343 348 328 338 402 404 390 374 385 416 447 454 436 424 415 408 403 400 398 397 395 392 390 387 382 389 524 451 403 382 371 363 358 359 360 358 357 365 369 370 370 369 372 373 374 378 386 395 394

GFSWCAN_2pvu_pres_027.txt.gz
Presure
409 427 417 425 392 381 372 369 376 399 376 353 336 325 316 294 307 315 344 467 386 325 319 256 237 233 196 234 169 226 229 227 233 234 216 207 216 202 181 199 197 201 196 227 210 211 213 219 193 209 199 191 242 260
390 407 402 428 401 385 381 397 393 396 364 350 327 320 298 299 312 323 339 445 421 315 322 249 234 233 241 239 230 229 236 241 241 226 212 218 185 195 176 207 196 196 179 223 210 205 207 218 210 229 191 193 179 243
382 382 370 383 429 433 391 389 384 375 345 328 319 296 308 305 310 320 336 499 342 316 325 253 235 232 148 182 143 221 232 242 218 231 228 226 217 222 216 211 211 204 216 185 204 193 215 199 211 217 212 191 222 249
334 357 367 362 360 376 387 368 336 324 324 318 312 300 301 318 328 336 396 485 338 322 126 250 235 236 237 233 216 227 226 236 236 219 228 225 233 228 213 215 205 217 216 184 198 195 224 225 208 214 213 202 210 232
318 319 324 326 325 323 322 321 314 308 307 302 299 295 314 350 370 399 423 238 133 308 297 219 241 246 207 206 205 127 192 228 223 227 191 202 208 216 220 222 204 196 192 204 207 230 215 205 202 210 200 227 211 223
320 309 308 310 310 308 305 306 304 297 296 326 326 342 353 362 365 396 119 118 334 303 308 256 247 239 238 229 237 230 229 225 222 217 220 221 211 205 196 189 192 213 210 217 216 208 212 215 218 206 197 232 246 238
321 308 308 302 307 307 304 308 313 319 321 314 313 327 343 354 369 394 557 336 325 320 303 257 249 243 243 180 240 160 231 222 220 210 209 200 198 214 204 195 206 206 210 205 213 215 208 206 219 221 190 219 210 229
318 318 307 307 305 303 307 308 306 308 311 317 317 323 340 346 377 388 376 321 317 317 295 244 245 246 238 238 237 243 234 223 198 208 219 219 226 222 215 199 202 205 210 206 208 218 212 213 221 225 226 216 212 237
324 318 316 314 310 310 308 308 310 308 307 311 320 321 336 346 366 366 322 308 287 311 291 249 246 245 241 239 238 235 236 222 219 218 219 225 214 209 206 208 207 212 193 209 216 203 219 214 224 228 223 233 243 239
360 333 331 323 319 317 316 317 317 320 312 311 327 332 344 347 359 377 310 295 298 313 299 251 247 250 247 206 245 235 239 202 224 221 216 213 216 215 208 199 209 216 214 209 197 264 223 207 234 217 248 237 235 237
388 217 381 379 378 373 352 341 331 333 276 346 356 360 371 347 331 396 311 299 307 319 314 249 252 250 188 197 234 247 239 235 187 226 217 215 209 198 189 189 205 219 222 222 221 200 210 230 233 243 236 250 228 228
334 407 370 366 247 414 432 396 372 371 271 361 374 378 252 365 254 395 315 303 310 308 304 252 244 244 205 238 229 208 244 247 236 227 219 199 180 201 191 214 206 197 220 215 231 207 244 253 219 230 230 242 248 235
411 349 353 355 350 369 383 385 372 383 384 364 378 315 406 377 363 324 319 316 320 312 297 288 258 251 246 152 209 169 221 215 224 236 237 234 234 234 231 228 221 221 171 213 239 255 228 193 178 215 230 236 227 239
276 256 277 270 274 309 303 296 295 296 303 316 312 314 321 339 334 309 310 282 291 282 284 280 272 257 251 242 234 235 233 229 228 226 222 229 235 231 231 224 231 228 224 238 179 178 178 179 181 208 238 228 228 231
288 262 249 260 248 234 268 255 246 214 291 285 236 320 233 261 274 287 282 280 270 272 268 267 265 255 254 221 246 243 246 251 218 223 226 218 222 214 214 226 226 197 205 178 202 234 219 224 225 233 228 227 233 239
263 265 259 267 273 253 225 248 210 250 271 242 272 209 256 251 205 258 231 234 279 268 272 267 255 249 249 239 232 267 212 236 246 209 239 238 243 239 226 240 230 222 234 234 227 232 234 236 231 220 250 258 228 251
205 215 219 241 255 247 191 198 228 269 204 266 233 187 234 217 204 245 220 240 232 215 208 247 200 241 212 234 228 249 249 240 234 230 223 219 223 226 229 239 240 241 231 236 224 223 230 237 242 237 208 218 221 220
271 228 244 249 242 239 248 238 221 249 235 214 268 231 257 229 209 247 218 209 264 237 206 209 246 239 234 241 237 204 217 233 234 233 214 245 246 239 237 230 242 234 239 236 245 242 237 244 226 232 236 232 250 242
264 220 233 271 217 253 254 223 225 278 230 239 228 230 228 229 226 250 191 218 255 267 271 239 209 262 244 243 248 244 239 235 251 234 232 234 227 235 232 223 224 220 220 217 235 231 235 227 222 240 230 240 232 239
235 244 239 219 254 241 228 225 244 234 228 229 256 231 218 220 233 242 261 216 215 229 217 215 260 207 213 224 231 260 248 240 244 243 250 248 232 235 240 248 232 236 246 242 226 224 225 235 240 236 237 244 247 239
238 228 258 235 243 223 229 218 231 230 227 228 231 224 238 229 234 238 213 217 247 257 215 228 222 228 261 260 242 232 250 215 228 265 260 259 235 246 250 250 249 249 246 249 258 259 261 267 251 257 262 258 247 259
226 254 224 231 255 236 233 252 224 221 235 231 229 231 230 228 229 224 227 225 231 230 230 253 259 236 235 231 227 229 225 239 247 228 233 246 232 231 227 234 243 240 246 250 251 252 256 257 255 253 261 257 244 238
223 230 231 228 245 233 245 227 231 234 236 231 230 238 250 257 257 257 254 254 256 259 259 259 262 257 253 236 239 239 242 258 254 250 259 245 242 256 268 263 266 261 264 268 268 265 260 258 249 241 245 254 256 262
235 233 234 235 231 231 225 226 224 223 239 245 247 248 246 233 239 242 243 244 247 248 247 248 249 252 255 253 253 253 255 253 256 256 263 257 258 257 254 255 243 245 245 242 246 251 241 253 257 270 279 289 289 280
239 218 237 243 245 245 247 246 244 240 239 239 239 240 241 240 240 241 247 248 247 249 248 250 250 249 255 255 256 257 260 261 258 257 252 255 252 247 252 242 253 254 256 256 265 274 281 287 267 268 278 287 295 302
247 245 199 230 244 245 244 245 245 247 245 242 249 253 260 265 256 256 260 249 268 270 266 273 281 286 287 286 280 276 276 282 271 272 272 274 271 269 271 273 279 281 287 292 271 277 284 303 349 353 355 451 449 441
242 240 241 238 239 244 247 250 252 253 253 255 262 269 278 281 276 280 279 279 276 278 287 341 341 346 345 344 347 347 347 349 356 415 283 282 291 291 289 289 295 373 329 389 395 448 446 444 438 431 424 416 431 424
248 246 249 252 254 253 249 236 245 270 277 277 273 274 272 270 270 288 352 361 364 367 366 367 431 438 436 433 429 425 429 429 430 430 431 432 433 431 432 432 427 424 421 415 414 415 415 411 417 423 417 407 400 393
249 255 244 245 249 262 270 273 273 270 262 256 264 295 301 291 298 369 367 360 376 437 430 423 417 412 407 405 409 414 411 406 400 401 420 416 404 404 403 400 396 432 425 414 408 398 364 409 400 392 384 380 395 386
263 266 266 266 266 262 261 266 278 282 292 327 350 340 338 370 366 359 393 425 412 401 396 400 410 425 441 465 462 468 462 457 458 451 439 426 414 413 414 407 401 425 441 411 399 391 384 376 376 385 378 382 381 379
276 276 274 279 287 291 293 290 303 328 341 329 327 362 367 361 367 419 404 396 419 455 466 459 451 445 443 440 438 438 434 427 418 412 405 401 395 390 418 414 399 387 379 372 368 366 371 373 374 374 372 369 365 366
280 285 295 293 287 298 317 327 335 317 323 356 362 364 363 420 403 400 453 473 461 440 426 417 409 405 404 402 400 396 395 391 385 382 445 418 399 385 374 367 359 356 359 364 368 369 369 390 397 400 398 394 389 385
287 284 292 312 322 319 316 320 328 345 360 357 358 417 408 403 449 467 456 429 410 400 392 387 384 380 379 374 378 380 396 427 400 383 371 364 355 354 359 363 364 364 372 375 375 380 389 394 393 390 392 395 401 404

GFSWCAN_2pvu_pres_030.txt.gz
Presure
394 411 414 402 403 418 415 392 400 400 389 390 352 365 340 343 342 352 325 297 159 317 81 427 339 306 227 268 246 247 242 239 244 244 253 224 216 195 193 209 202 204 200 208 178 204 209 192 213 200 216 210 209 219
385 401 396 384 378 379 381 380 386 375 374 367 364 342 339 338 350 325 301 298 308 319 384 457 318 305 271 273 226 119 248 233 242 245 240 226 210 219 210 208 208 200 202 205 189 195 196 202 198 189 219 207 209 210
382 398 408 373 369 362 368 366 368 383 414 391 365 355 341 340 311 302 299 303 310 344 502 348 305 300 274 259 245 252 244 243 244 241 229 226 225 221 211 179 211 201 202 211 203 198 193 204 200 199 208 197 222 207
365 380 424 393 383 370 367 377 389 372 353 344 338 333 327 308 307 305 295 309 331 403 487 324 304 283 265 249 248 175 237 242 239 244 229 232 230 215 209 212 202 187 198 208 205 218 181 209 181 180 197 204 221 195
333 373 380 382 405 433 387 382 361 346 339 335 325 315 309 305 298 295 305 312 354 538 384 304 298 269 254 248 242 160 148 207 240 236 234 228 232 223 214 218 211 206 209 185 204 224 197 221 191 190 198 217 192 218
318 325 335 337 352 366 378 361 347 330 315 312 309 297 292 297 299 309 311 326 353 485 306 288 287 262 251 244 215 243 248 241 244 245 245 237 229 229 226 225 217 190 221 226 215 222 226 199 192 187 209 204 205 211
308 306 308 309 307 313 318 319 316 309 307 305 300 305 301 293 255 301 298 321 352 434 306 294 267 226 248 243 240 246 230 136 158 229 225 230 234 230 226 222 222 223 229 225 225 218 208 203 197 199 207 216 211 213
306 303 302 302 299 297 296 295 295 296 293 294 293 299 299 309 320 326 329 338 444 336 305 275 145 255 249 229 229 239 236 235 234 235 236 242 228 223 223 218 209 187 209 204 203 202 203 209 213 211 211 204 207 214
305 309 300 304 302 307 315 319 318 319 326 325 335 334 343 360 365 318 394 447 121 314 299 273 261 250 246 226 224 253 237 237 235 238 223 233 228 201 206 211 223 223 211 203 222 213 208 201 205 207 204 204 219 216
307 308 305 297 304 305 299 308 310 316 310 312 316 332 333 345 368 388 474 436 348 316 313 274 262 249 253 241 232 239 248 245 241 233 231 228 214 218 218 212 212 211 216 221 213 204 205 209 207 200 215 216 204 228
310 308 307 306 308 300 303 309 304 306 312 310 317 329 340 359 377 388 431 416 314 317 313 264 250 242 235 245 238 236 246 235 234 233 225 214 213 210 208 217 218 214 218 210 212 210 207 206 196 210 214 219 216 217
350 335 318 311 317 312 310 310 313 320 323 340 344 344 355 370 366 358 410 361 308 317 310 266 250 241 239 239 242 232 245 240 233 234 229 219 213 211 210 211 201 201 207 211 196 200 206 189 203 205 213 185 206 216
393 435 403 376 363 341 339 393 377 370 377 366 344 354 399 236 356 358 411 305 305 313 298 272 253 242 242 233 224 252 246 244 238 227 229 227 220 219 218 214 215 212 203 202 204 202 186 200 172 211 189 225 235 230
304 308 316 320 314 298 321 322 338 367 165 348 341 327 335 347 353 333 291 310 310 306 285 279 265 254 241 197 222 157 209 203 238 235 222 221 226 226 220 216 212 213 212 198 198 215 215 211 217 200 172 245 211 184
285 283 285 282 292 296 296 302 312 311 323 314 312 303 297 266 290 303 289 304 305 298 282 277 266 255 247 239 242 235 217 194 231 227 229 232 231 228 218 214 213 224 220 219 219 222 230 234 217 235 224 228 231 226
249 242 278 209 267 221 244 285 273 238 297 299 291 308 307 308 312 298 289 311 295 302 286 277 269 253 241 241 243 237 237 216 207 219 221 218 229 235 235 236 236 222 225 201 226 241 243 242 221 238 229 238 239 238
239 270 253 190 240 257 199 274 184 275 273 186 287 272 271 242 268 280 203 279 281 284 282 284 260 197 240 235 192 239 240 230 233 197 230 230 220 223 224 225 224 224 226 225 229 234 238 225 226 240 237 225 224 243
236 272 214 260 263 252 232 268 254 235 203 251 205 220 198 225 264 273 285 248 279 279 281 265 277 271 264 247 238 231 235 235 241 245 231 240 236 241 239 239 248 248 241 233 242 235 229 239 248 241 223 217 229 235
211 215 209 214 228 214 264 206 212 221 245 251 266 216 231 196 231 260 224 255 266 265 260 243 258 235 261 266 264 261 251 250 252 251 200 215 249 247 250 254 256 255 255 240 233 231 238 239 238 241 233 239 241 245
224 221 264 231 225 227 223 241 237 230 207 250 238 251 267 257 247 247 253 224 215 233 267 235 271 231 209 222 209 222 248 250 241 245 231 244 236 243 248 233 236 236 239 235 244 243 246 247 249 248 244 240 244 240
240 227 224 227 227 237 225 228 222 226 237 232 270 242 226 268 231 231 238 248 258 198 214 218 224 225 235 259 247 248 221 228 213 237 225 221 249 251 249 235 228 229 233 230 232 232 227 242 251 251 249 251 259 246
235 233 230 247 229 220 230 222 230 235 228 229 233 261 233 231 231 231 229 230 242 233 224 240 234 238 282 231 241 225 226 231 259 244 247 260 240 239 261 253 231 236 237 238 239 248 250 240 239 245 243 255 261 259
237 237 239 232 230 235 247 242 236 231 259 217 240 232 231 230 228 238 234 230 229 228 234 234 235 232 228 236 238 248 243 238 239 256 252 238 242 240 242 244 255 269 250 253 246 249 256 255 263 284 282 222 235 252
233 245 219 224 241 245 237 245 249 252 237 257 243 232 233 232 238 240 242 253 257 254 251 252 255 258 261 258 257 260 259 269 273 274 264 273 275 269 262 270 265 263 266 265 265 254 238 225 251 262 265 267 267 270
231 238 232 241 242 237 233 231 228 230 236 238 238 231 249 248 248 249 246 249 247 248 245 245 247 247 252 252 252 256 257 258 260 255 261 263 258 258 259 260 259 263 266 267 266 269 271 274 276 278 281 286 290 303
235 238 238 234 237 236 237 237 238 239 248 248 249 252 253 252 250 252 255 259 263 266 269 270 271 280 295 307 308 299 298 298 296 301 297 298 302 303 305 307 309 303 302 302 299 299 303 306 311 359 362 442 440 434
237 237 238 237 240 243 245 248 251 251 252 255 251 246 252 254 261 260 259 264 281 294 299 286 288 295 323 366 402 409 385 423 447 443 443 425 414 415 409 397 406 412 425 439 436 435 434 431 427 424 421 424 423 424
240 241 245 246 246 238 232 244 244 248 255 262 262 263 251 260 271 282 288 282 283 296 352 385 396 391 439 439 431 425 418 414 413 415 412 413 414 415 418 416 413 406 443 434 418 405 399 401 415 415 414 410 405 398
251 235 237 245 252 254 259 263 263 258 256 259 270 274 278 277 281 290 301 346 351 377 391 420 437 426 414 413 427 441 448 458 470 472 473 470 469 464 462 454 438 426 415 409 405 408 414 402 396 389 387 382 380 379
253 256 258 261 259 256 258 263 270 272 267 275 280 280 289 300 309 338 342 356 384 409 433 424 448 485 473 465 456 452 447 441 438 434 431 423 417 413 409 405 403 409 408 400 391 383 378 372 371 375 382 393 402 407
258 257 260 267 272 274 269 272 273 274 281 288 304 296 299 333 334 340 371 415 429 458 486 477 464 446 433 423 413 409 405 403 401 399 397 392 388 412 409 392 384 376 371 368 368 371 380 386 392 398 400 401 405 496
267 270 270 269 266 270 274 279 283 296 303 296 310 323 329 333 347 394 427 481 485 465 442 425 412 402 396 389 384 381 376 371 377 392 418 391 379 372 366 359 363 372 379 383 388 399 391 382 433 401 389 387 390 392
264 268 274 275 276 280 289 298 297 297 308 319 326 333 341 370 393 423 471 452 428 413 403 396 388 382 382 385 414 423 518 417 388 374 367 360 358 362 367 367 367 367 368 371 385 394 368 405 404 379 386 379 127 345

GFSWCAN_2pvu_pres_033.txt.gz
Presure
330 366 354 422 395 430 438 423 440 425 415 410 382 358 369 337 338 336 347 331 332 341 217 327 242 315 306 318 320 292 305 284 276 280 268 241 248 249 245 184 231 235 221 212 209 206 192 202 185 194 172 170 186 178
363 354 425 386 385 411 396 382 375 428 399 384 377 383 351 339 337 343 327 324 331 330 327 321 317 310 305 354 367 298 191 272 274 282 259 255 247 237 243 237 231 227 213 214 198 211 181 200 199 207 184 203 203 196
356 407 398 370 372 384 394 392 385 380 373 370 382 357 341 344 339 298 323 327 324 317 155 211 300 300 328 403 147 295 287 273 280 246 256 251 239 240 239 238 230 224 216 214 206 210 204 195 201 200 208 200 193 190
386 384 398 367 364 369 380 391 384 390 402 370 343 338 337 338 335 326 325 316 309 308 304 295 299 307 276 362 316 286 197 282 281 266 254 249 245 242 237 238 234 222 214 207 190 193 198 208 192 204 201 202 203 196
378 402 419 373 375 372 363 372 382 378 345 337 320 326 337 334 335 331 313 305 303 304 298 290 306 342 446 392 302 281 242 272 266 257 241 250 240 238 235 236 231 218 199 206 197 178 205 154 203 208 198 197 194 194
352 378 386 371 380 390 404 401 371 353 345 326 330 342 343 333 323 309 303 298 296 287 299 308 337 449 471 317 277 278 275 179 255 248 246 238 234 239 238 223 216 214 215 209 208 210 199 209 215 207 203 204 218 184
319 337 343 355 349 348 360 380 375 353 339 338 324 317 316 315 313 304 289 289 284 291 310 349 400 408 316 289 271 274 258 259 254 249 248 236 243 241 229 218 220 216 213 209 209 206 208 215 212 207 183 222 221 215
306 306 311 317 319 316 315 313 315 319 319 317 311 309 305 304 301 278 296 291 303 330 454 403 376 340 288 268 266 264 256 227 248 241 187 246 237 232 226 227 225 220 223 221 215 215 211 215 218 227 229 231 227 206
297 304 298 297 296 297 297 297 297 298 298 303 300 304 290 291 273 292 296 305 218 387 360 344 340 285 280 263 262 262 228 249 250 240 242 182 229 227 221 219 221 221 220 218 214 213 215 223 229 229 230 211 217 199
296 301 312 308 307 305 303 302 297 290 289 293 282 274 283 291 298 306 297 306 326 347 342 325 298 274 134 137 259 255 244 238 231 218 240 237 233 237 235 225 227 225 224 223 222 222 226 224 202 204 204 192 215 206
297 296 294 297 303 301 298 302 305 309 322 331 336 337 339 319 327 324 128 309 333 286 169 288 286 262 232 253 250 243 245 235 233 182 238 232 236 226 237 230 229 227 190 221 228 229 226 204 227 203 222 214 210 211
303 301 293 301 301 298 299 300 301 307 320 325 334 342 346 359 375 382 361 316 343 357 268 285 274 250 255 257 240 199 231 241 242 242 236 233 228 216 221 229 232 233 234 225 225 229 231 211 215 172 213 209 208 202
319 320 317 310 314 325 345 290 339 373 376 340 353 363 360 381 470 499 428 420 382 350 301 275 260 260 248 263 255 254 220 242 256 220 232 228 230 232 230 229 240 236 224 173 223 213 208 219 210 203 202 213 209 198
343 341 332 339 321 315 304 307 307 308 317 333 329 333 463 454 394 371 371 390 381 327 268 210 243 256 259 267 270 247 250 223 175 238 232 228 230 232 232 230 227 223 223 214 211 212 212 212 211 211 197 208 215 214
288 283 371 309 297 292 292 293 298 304 300 320 323 331 340 353 372 353 358 339 286 304 247 239 259 254 252 259 250 252 251 233 231 202 233 231 230 230 215 229 228 227 224 222 218 215 214 215 220 219 213 199 199 202
279 282 286 283 232 298 291 294 232 211 312 303 300 315 315 325 328 341 316 314 305 310 278 262 238 253 247 243 249 242 238 236 234 227 199 233 233 234 233 229 226 225 227 225 220 220 217 193 199 200 195 201 213 217
269 240 270 276 277 279 285 251 287 292 278 294 247 265 286 299 277 296 304 271 295 301 287 269 250 245 239 232 234 240 245 244 230 228 195 232 236 232 201 233 227 228 229 210 213 215 214 224 228 228 230 241 244 226
225 198 267 252 227 278 189 274 283 268 279 276 244 201 280 268 275 286 300 287 291 264 276 278 274 252 245 242 241 239 240 242 240 240 240 234 240 240 226 228 229 221 215 209 222 225 226 227 225 227 227 229 236 239
266 208 195 260 238 216 270 270 270 265 266 262 230 272 235 280 284 276 274 272 280 290 276 209 279 276 258 254 250 243 241 234 238 225 226 234 238 237 235 234 233 233 234 237 235 227 235 235 235 239 246 250 251 250
209 254 259 216 245 264 205 250 278 269 259 213 203 211 274 187 203 253 227 272 274 273 256 273 273 211 271 267 258 254 250 244 230 234 236 236 236 236 235 237 236 242 241 229 247 250 253 247 222 239 248 250 251 257
226 217 206 198 224 239 224 215 216 213 230 244 270 261 217 213 238 257 230 260 257 262 255 259 262 276 271 269 209 205 264 256 216 220 255 249 240 241 249 252 257 261 256 266 252 258 259 263 264 263 256 239 239 242
223 219 229 227 234 221 236 236 235 228 225 232 242 232 231 241 266 224 224 271 227 254 259 234 211 238 250 262 273 276 268 264 267 267 240 239 262 265 262 255 227 231 245 256 263 267 261 252 255 256 249 252 254 252
233 229 227 245 246 224 227 228 228 236 234 236 238 240 229 235 234 234 226 230 235 234 228 229 234 229 239 241 221 225 233 236 239 233 235 240 247 244 246 247 249 246 246 249 249 250 250 252 265 265 267 272 274 278
217 245 232 231 260 230 243 249 245 238 251 244 245 243 245 244 241 253 234 236 238 234 235 240 248 242 245 250 255 261 263 267 270 269 268 265 266 269 263 260 260 264 266 267 265 267 269 267 265 260 261 263 264 264
264 253 247 249 218 243 244 244 241 238 238 228 236 239 234 239 241 243 253 241 243 245 243 245 247 249 251 253 259 259 260 261 262 262 264 266 270 273 273 277 276 277 279 279 282 279 279 278 280 283 281 286 290 294
243 243 236 236 241 236 237 236 233 239 239 241 241 242 243 244 240 247 253 252 248 251 252 257 260 258 262 263 266 278 291 305 317 357 355 362 361 366 362 358 352 347 348 355 339 337 353 350 364 435 433 435 440 435
222 238 238 236 235 239 240 240 243 235 237 240 243 237 240 246 249 254 260 266 262 260 268 275 283 299 309 315 341 433 460 456 451 447 441 436 431 429 428 426 423 423 424 422 423 425 429 455 445 438 436 428 422 421
238 234 237 241 237 241 241 234 235 245 243 246 243 248 248 258 261 262 269 268 281 280 298 290 309 342 364 447 448 443 441 440 444 452 457 456 458 464 474 480 480 475 469 462 453 442 430 421 414 412 411 408 405 399
240 180 238 241 244 248 248 244 249 253 253 251 258 262 263 266 275 274 282 285 303 308 317 341 359 458 461 479 488 491 483 470 462 457 453 447 441 438 435 431 424 419 413 409 407 405 401 396 393 389 387 388 398 406
248 248 249 251 250 251 254 250 255 259 260 258 268 268 264 274 281 288 297 307 315 336 347 454 488 494 478 465 448 439 430 422 415 410 407 405 405 401 397 392 395 403 393 386 381 378 379 387 396 414 403 395 392 412
249 252 252 253 254 261 262 258 252 260 269 274 269 277 282 285 292 307 314 328 339 401 474 468 449 432 421 412 405 399 394 389 386 381 379 378 382 402 397 385 377 372 376 378 375 374 371 372 376 407 384 373 424 402
245 251 255 258 254 258 263 266 272 271 272 281 281 292 293 302 313 320 334 351 419 463 439 431 421 408 399 391 384 382 383 381 390 384 418 394 380 371 365 372 368 362 358 354 355 357 361 364 374 385 381 369 404 408
259 262 267 266 266 270 271 268 276 280 285 291 292 296 311 318 325 343 376 446 446 438 423 407 395 415 491 497 502 511 552 469 406 386 371 360 365 365 357 350 343 344 344 342 343 343 355 365 372 378 376 381 398 378

GFSWCAN_2pvu_pres_036.txt.gz
Presure
289 288 310 338 376 359 388 420 412 444 425 426 395 385 379 354 352 362 344 323 316 305 169 186 343 333 327 337 344 392 302 286 319 381 332 301 297 298 287 277 287 278 240 238 232 238 206 191 219 212 183 142 207 183
309 323 369 355 375 397 397 390 391 409 382 407 381 377 375 361 365 370 361 328 326 322 278 327 170 330 335 124 347 334 221 216 292 435 342 301 298 283 282 276 272 267 287 269 274 275 217 119 206 206 220 202 179 184
360 356 362 390 393 376 404 387 410 422 398 402 395 383 377 358 366 370 330 321 326 305 114 319 313 331 341 350 336 330 156 220 337 296 319 297 301 286 281 270 276 267 272 269 253 245 225 216 218 217 213 204 202 211
358 401 435 404 369 378 391 383 404 413 405 406 406 405 401 369 348 358 304 315 327 325 319 264 322 328 334 333 215 302 292 303 321 294 339 300 288 276 272 262 258 260 258 254 244 228 217 211 216 218 205 195 191 191
402 393 381 379 372 368 384 369 378 383 363 371 375 363 340 333 319 325 332 321 310 309 308 320 320 329 321 309 300 294 218 359 332 304 312 292 283 275 266 261 255 258 246 244 234 221 228 217 211 207 209 194 205 208
369 396 388 369 364 369 378 384 360 355 374 349 349 340 330 322 327 310 313 311 317 321 320 315 321 312 300 282 276 296 313 331 296 144 306 281 272 270 265 254 247 244 248 235 220 233 223 217 212 214 211 195 209 203
337 353 409 401 373 379 360 364 371 365 336 333 315 311 309 330 325 320 314 310 311 317 320 330 323 304 302 285 306 292 327 350 257 335 270 272 264 256 246 242 243 235 240 233 224 233 219 212 210 204 211 209 197 207
319 323 343 370 347 343 321 320 330 338 339 330 327 328 329 332 321 316 313 314 324 329 312 303 297 301 307 297 299 318 366 346 286 279 266 263 251 232 241 241 238 240 245 234 227 230 223 216 216 218 221 213 212 210
308 307 308 315 321 324 327 326 322 327 319 315 324 325 330 322 322 320 325 303 295 290 295 295 294 292 306 332 415 381 362 309 294 282 264 259 238 236 248 236 239 237 233 232 233 230 228 220 214 212 209 211 212 206
305 298 297 302 304 304 310 311 316 318 318 318 319 318 321 318 309 298 291 283 285 286 295 304 352 370 384 370 364 361 342 288 276 247 246 246 246 250 238 240 236 231 226 230 231 221 223 229 218 217 218 213 203 215
301 297 306 312 310 302 297 298 300 299 303 303 306 306 305 297 287 283 287 288 315 348 327 322 316 316 327 301 272 130 279 266 260 245 246 239 234 187 228 234 231 232 227 234 223 222 223 219 214 212 213 224 222 218
292 293 296 297 298 297 303 320 325 291 287 300 296 297 294 283 280 292 209 336 334 311 290 290 311 300 317 320 295 282 266 259 246 250 238 247 246 232 233 228 232 235 234 232 226 221 221 221 224 223 222 220 218 219
301 316 316 328 329 329 319 318 323 326 331 332 327 291 288 293 293 297 304 254 301 295 286 280 288 288 300 285 274 265 260 248 248 242 245 237 224 231 235 244 242 236 228 228 225 223 222 220 220 220 222 224 225 223
302 297 315 316 323 327 322 323 323 327 339 358 352 351 365 347 294 297 311 301 289 302 285 285 292 277 276 264 264 259 246 248 244 245 235 234 238 233 238 244 242 236 226 228 230 230 231 231 231 227 230 229 228 224
291 305 296 310 298 299 307 331 324 368 398 397 425 395 376 403 362 307 326 297 292 277 282 289 278 270 254 259 256 240 238 244 245 247 236 232 237 231 236 242 234 236 238 239 233 229 223 223 231 235 233 223 225 221
283 241 212 290 290 299 294 257 299 309 320 350 355 393 436 440 392 321 341 294 295 243 234 267 225 260 267 241 247 244 247 239 213 249 238 192 206 239 181 195 236 233 233 232 233 235 234 232 234 231 224 224 223 221
276 273 278 281 283 288 182 291 235 209 300 305 323 347 366 442 334 334 369 308 302 307 287 267 265 251 263 249 255 245 265 232 231 241 242 240 162 219 239 242 168 231 226 233 233 233 234 233 229 227 226 222 213 215
264 263 267 250 173 274 274 281 283 278 285 294 289 294 290 305 308 317 302 312 302 298 282 267 256 237 254 256 249 244 252 253 239 238 236 236 240 235 227 224 228 229 232 234 232 232 204 233 232 232 231 229 229 229
202 241 268 265 269 271 273 277 279 192 271 271 274 281 291 288 274 275 283 286 287 226 269 257 254 251 252 242 242 246 243 233 232 233 239 236 230 228 227 227 228 227 224 221 227 230 227 226 225 225 226 225 225 227
222 207 255 268 264 260 266 268 261 219 275 260 281 277 189 272 272 278 283 282 280 281 285 275 253 200 249 247 235 239 243 240 236 233 234 233 231 227 232 230 233 232 231 230 231 236 235 236 239 240 239 239 239 248
241 230 223 202 249 271 283 190 191 213 211 271 260 267 266 270 274 213 269 269 268 271 266 262 274 281 259 256 250 248 246 246 245 243 242 239 242 241 243 243 242 246 249 251 254 254 253 249 251 228 260 263 263 263
222 223 218 204 207 220 243 245 226 245 248 229 243 203 210 256 267 229 198 249 224 263 263 266 269 270 273 276 273 263 262 265 266 263 262 258 256 258 227 227 261 263 263 233 265 265 271 267 265 269 252 251 258 273
236 210 232 227 233 224 223 229 226 225 230 236 240 245 241 238 236 247 229 225 224 224 225 235 234 215 228 225 232 225 232 241 252 250 255 257 262 262 262 260 261 262 267 267 268 266 260 260 261 258 258 258 258 262
228 215 227 221 241 230 231 233 248 246 246 241 241 240 231 226 236 245 239 237 229 239 224 227 238 242 241 241 236 227 243 247 244 233 235 237 243 253 256 239 241 249 253 264 269 278 275 276 279 277 275 275 273 268
254 244 238 228 232 258 250 230 248 243 232 233 237 232 229 223 238 238 238 243 242 241 236 238 238 241 244 244 244 244 247 254 260 260 262 269 270 273 274 276 278 280 281 284 285 286 290 288 291 290 291 292 293 294
246 262 264 257 251 248 223 238 240 239 234 230 236 239 236 241 239 240 231 236 244 243 244 247 250 254 254 259 264 271 282 303 318 382 392 416 457 454 452 447 442 439 437 437 434 431 427 427 449 449 451 465 455 446
250 247 242 241 249 242 241 240 241 241 239 233 238 242 244 247 246 244 239 247 248 249 252 260 263 271 278 301 335 351 371 430 459 461 460 458 459 461 468 475 478 476 480 477 477 473 460 450 440 432 426 421 414 410
243 240 248 245 239 238 241 239 241 241 244 250 251 252 239 242 251 255 248 250 260 264 271 276 289 299 329 338 380 460 471 505 506 500 495 485 470 460 452 448 442 435 428 422 419 414 412 408 404 399 396 393 393 397
244 244 240 241 242 243 242 241 245 242 247 246 251 250 254 252 251 259 263 268 272 284 283 295 319 332 354 461 490 482 463 446 439 436 429 420 413 412 408 406 401 397 395 394 390 391 388 386 385 385 382 379 380 382
245 242 241 240 240 244 245 242 245 248 246 252 253 252 260 269 265 267 270 280 286 290 300 328 335 452 454 451 441 432 420 409 403 396 389 391 384 383 382 381 393 398 388 380 377 375 372 366 363 362 361 365 378 388
243 245 244 244 241 247 249 241 251 257 255 257 263 269 265 276 268 277 287 286 296 309 330 423 441 450 448 429 410 398 391 386 382 381 379 379 384 408 401 382 371 371 368 365 360 355 351 347 345 342 343 377 383 380
241 250 247 249 243 251 256 256 256 259 269 268 268 278 272 279 280 291 293 302 317 349 441 444 451 426 408 396 490 495 490 483 473 466 496 418 394 376 366 364 359 353 349 346 343 346 348 343 340 337 339 365 371 397
258 259 259 260 264 262 266 261 268 267 268 275 272 279 278 289 291 301 309 334 428 434 446 432 411 398 547 552 553 550 545 532 441 400 381 368 364 362 353 345 340 335 333 348 352 339 344 340 336 335 359 369 391 413

GFSWCAN_2pvu_pres_039.txt.gz
Presure
278 274 270 283 290 291 289 358 373 381 373 366 398 400 398 391 379 365 359 289 353 349 340 364 324 119 115 256 270 347 302 256 271 302 285 298 294 327 308 301 283 278 271 264 240 276 237 239 206 211 159 109 208 190
285 292 275 289 314 385 370 355 354 403 401 392 400 397 404 422 235 393 424 387 365 372 386 344 330 120 338 340 336 365 213 284 346 275 268 333 324 298 304 282 271 239 261 275 262 282 296 275 218 216 231 210 211 225
274 297 379 370 361 353 406 396 397 417 414 392 393 417 408 403 412 434 84 347 350 415 366 344 312 317 245 234 339 342 358 138 333 284 293 333 278 283 282 285 284 304 276 158 278 264 262 263 115 226 221 222 217 214
371 360 350 372 390 379 377 394 398 412 419 398 387 395 410 389 369 347 336 341 335 329 303 295 297 108 322 324 309 352 340 321 349 298 363 260 286 302 293 280 289 269 282 278 230 277 272 274 264 261 259 252 234 249
374 394 392 378 368 385 384 385 405 401 389 378 382 372 359 353 342 324 338 327 270 318 303 265 247 317 270 342 334 305 324 325 344 372 318 302 276 344 353 293 281 288 282 280 256 264 269 256 246 243 268 237 175 221
404 415 389 367 376 367 351 361 392 399 398 379 372 368 350 336 340 328 346 324 318 314 306 300 322 112 317 322 328 342 346 323 331 282 277 293 294 278 402 317 262 265 264 262 286 270 260 252 257 242 247 234 230 241
406 379 380 394 385 344 360 357 377 399 396 375 365 354 350 340 336 339 332 322 313 320 293 321 314 325 317 244 276 160 316 320 301 278 276 302 324 314 352 289 276 278 281 278 275 282 250 248 244 237 234 231 215 213
350 335 357 370 354 332 332 349 333 342 349 358 362 354 352 364 314 310 311 315 324 325 328 325 309 312 316 265 328 302 308 309 291 268 275 228 224 326 369 284 278 273 260 262 254 260 248 243 236 237 225 223 215 218
324 328 326 324 330 339 328 318 327 328 329 315 312 325 327 330 275 309 318 327 317 317 322 322 312 315 321 324 299 293 290 294 280 254 293 306 282 314 329 290 267 260 256 247 249 247 242 237 232 237 229 219 219 221
295 305 316 320 322 325 323 325 325 319 317 327 344 329 326 328 323 326 328 327 313 309 310 311 315 322 306 300 287 289 308 283 295 287 294 294 328 300 297 263 258 250 243 244 233 241 236 243 234 235 232 222 225 224
298 304 292 291 308 310 313 311 310 311 315 326 336 331 333 328 314 296 289 293 295 297 296 300 307 300 300 287 294 291 311 219 290 300 298 313 320 291 265 252 245 240 239 235 236 245 234 245 236 231 230 222 225 225
299 299 306 301 288 291 301 307 311 312 312 310 308 304 297 283 286 282 287 288 290 285 287 323 343 326 361 374 239 309 307 306 322 319 316 309 269 255 248 242 238 238 235 237 237 180 238 235 238 231 226 222 222 223
305 306 309 305 309 310 285 282 291 297 308 306 290 289 284 284 283 281 296 284 303 314 307 316 301 309 315 334 332 337 321 321 320 317 270 257 251 246 242 240 236 235 159 236 236 237 236 231 228 227 226 230 230 226
336 345 339 322 323 318 320 318 309 274 279 292 279 279 274 280 282 313 299 307 300 290 287 129 286 276 283 295 294 295 297 297 302 265 255 252 248 244 239 236 236 236 235 237 236 236 236 232 227 225 225 229 230 222
308 311 302 307 333 325 342 349 361 338 321 286 281 282 279 311 309 293 295 286 281 279 286 269 284 279 272 276 279 291 288 282 260 255 251 250 244 238 236 232 236 236 237 237 237 235 229 228 228 229 229 228 227 225
291 286 285 295 307 332 365 361 372 401 347 353 297 289 286 309 308 291 279 278 269 268 276 284 273 276 279 276 271 266 257 257 259 251 245 242 245 236 234 236 236 240 245 230 227 229 231 233 234 238 239 236 229 226
280 279 278 283 284 215 162 340 358 371 390 440 367 303 294 297 300 284 275 273 187 268 273 279 269 274 244 254 255 260 256 261 259 248 247 235 239 241 240 231 239 160 229 236 236 236 238 240 242 243 244 245 247 247
272 269 268 266 265 273 274 290 318 379 400 418 452 309 294 294 301 281 280 267 270 268 271 277 271 272 254 259 260 253 258 255 232 239 239 244 247 250 238 232 229 224 223 226 231 232 229 233 231 231 231 227 226 227
259 255 218 270 269 270 270 272 285 291 304 334 349 320 300 298 300 282 287 271 238 205 266 264 256 273 263 270 256 244 252 262 257 254 227 243 234 242 243 246 248 247 246 245 243 243 241 241 239 228 225 227 226 224
265 263 265 270 269 275 268 273 231 281 284 288 287 290 291 297 290 217 212 278 265 257 216 259 262 264 268 266 266 255 246 245 243 235 252 231 257 254 224 225 226 228 238 241 239 239 238 229 231 229 228 234 236 234
213 254 249 257 280 274 191 268 266 265 277 274 271 267 263 191 277 278 279 280 286 270 282 275 264 258 250 239 240 239 256 235 235 234 233 228 241 236 244 224 246 244 240 239 239 242 240 245 247 249 249 249 249 252
237 242 246 246 245 251 217 220 240 223 248 246 261 260 259 256 258 260 248 256 265 261 261 265 268 268 268 263 256 248 246 246 240 244 246 248 254 250 263 265 270 271 273 273 272 274 274 274 279 281 281 283 290 293
222 226 222 204 224 238 235 231 243 226 246 247 228 215 234 242 239 235 231 223 204 219 242 245 246 249 251 252 253 255 253 260 253 261 256 258 260 261 262 264 266 269 271 273 277 278 279 280 266 266 268 275 263 260
222 218 234 230 248 223 241 242 246 237 239 240 238 239 239 238 231 237 237 241 240 230 230 230 224 223 226 230 230 232 233 227 232 232 233 233 235 236 237 239 246 250 257 262 268 271 271 273 277 280 276 278 291 291
226 232 220 230 228 233 244 232 237 240 239 240 237 233 234 234 230 231 231 233 233 235 243 241 238 238 241 241 244 241 243 245 257 258 253 270 282 288 295 300 302 320 325 330 457 457 455 454 455 453 456 479 480 476
250 244 235 242 250 224 236 247 229 220 243 239 234 234 235 240 238 233 234 236 242 242 241 246 248 248 245 249 256 260 276 289 308 354 362 367 375 428 510 508 502 502 499 494 492 487 481 476 468 459 448 438 432 424
239 237 240 257 256 251 245 246 246 239 242 240 231 235 247 247 247 245 246 245 246 248 251 256 261 262 261 264 279 298 312 347 360 376 444 495 487 483 480 473 465 452 443 436 433 428 425 422 417 413 407 403 399 394
251 260 249 234 246 245 236 241 246 243 241 250 245 244 240 248 245 254 249 254 260 264 266 266 264 270 281 298 303 339 362 442 450 455 452 443 431 425 424 420 415 410 408 406 399 394 395 395 392 389 385 380 372 370
255 252 250 246 238 242 247 248 244 245 253 243 245 241 245 249 245 250 263 259 263 263 269 269 275 291 300 313 358 453 453 463 457 445 428 410 402 400 390 390 384 385 384 403 398 389 383 376 372 367 364 358 358 354
247 247 248 247 245 242 245 244 244 240 242 248 242 250 253 254 262 262 258 261 269 270 284 285 300 302 339 451 452 462 445 427 413 401 394 392 388 380 378 375 381 402 387 378 374 371 363 358 353 351 360 358 350 353
243 240 244 249 251 249 246 241 245 251 251 254 258 254 257 264 263 267 268 274 278 287 292 303 320 419 443 461 438 419 441 525 515 506 495 480 451 417 408 400 385 377 369 359 352 346 343 354 358 348 343 342 341 339
243 245 250 250 251 256 256 257 253 254 258 256 265 267 267 269 268 270 285 288 285 298 313 338 443 433 452 418 400 577 572 560 547 524 493 475 427 398 382 371 363 352 342 332 325 322 344 336 335 334 333 335 334 355
255 254 253 248 245 245 251 259 264 260 259 267 266 270 271 275 281 288 284 303 311 326 436 438 447 444 411 390 427 401 388 378 374 399 388 379 370 367 356 343 336 326 319 320 320 323 325 329 334 336 333 339 368 388

GFSWCAN_2pvu_pres_042.txt.gz
Presure
296 290 290 284 280 279 280 283 266 264 258 268 270 272 273 273 270 267 275 270 267 267 275 209 179 282 273 268 281 215 256 247 275 290 252 286 282 294 292 292 298 301 285 227 270 290 281 265 263 223 203 152 152 186
287 282 289 288 253 285 281 276 282 290 298 300 299 296 295 292 289 289 290 289 288 288 295 300 298 295 243 295 291 132 296 293 290 297 287 282 273 276 234 286 286 327 290 184 256 245 255 257 262 265 221 220 222 220
278 266 284 283 304 318 337 393 381 380 377 366 357 354 350 353 358 362 363 245 360 372 382 344 332 321 318 295 313 118 326 385 148 175 369 331 279 292 268 295 284 316 265 273 265 249 260 273 281 133 280 290 242 234
281 293 324 360 376 365 396 403 398 395 395 396 397 396 386 380 375 388 399 217 378 345 337 330 335 336 335 175 123 243 354 341 313 219 338 348 275 276 289 277 274 297 283 267 266 263 262 273 272 249 221 258 261 256
360 370 349 391 384 391 389 386 393 418 421 417 419 399 397 382 372 379 393 378 384 388 392 358 359 352 107 303 330 335 340 337 333 339 204 360 227 264 268 197 278 343 282 251 268 259 271 248 242 215 257 274 282 270
348 395 392 386 369 367 380 403 394 382 386 387 408 417 415 410 392 385 381 367 353 346 323 313 336 338 116 336 134 327 323 344 353 299 315 355 307 267 289 359 277 324 313 296 272 258 250 248 255 258 251 250 265 253
402 374 364 366 362 375 402 399 389 371 379 382 380 376 367 355 348 349 331 323 323 327 329 327 289 314 265 124 326 333 310 293 316 312 312 339 306 160 316 349 280 314 304 301 269 262 260 256 259 261 260 231 248 247
343 340 351 339 344 383 384 366 371 374 351 340 341 338 336 328 339 316 310 311 312 321 309 318 314 308 249 155 323 309 104 211 315 291 327 335 301 287 330 344 300 280 302 261 259 260 257 261 274 285 254 250 247 236
336 335 323 326 330 341 349 375 360 342 334 336 333 322 324 331 332 315 308 309 310 316 314 310 305 331 313 321 314 307 309 299 303 298 309 310 300 199 327 274 274 277 280 287 287 274 273 271 260 260 251 245 239 234
316 323 333 327 314 312 316 320 337 353 349 353 335 330 341 337 325 316 313 307 310 299 323 318 307 308 306 321 312 346 314 294 305 299 290 274 311 279 288 278 287 285 327 279 274 282 279 240 252 255 234 240 263 240
301 308 315 317 321 323 320 331 328 321 337 326 320 312 320 328 337 338 335 335 330 324 315 310 307 317 316 326 317 303 317 297 291 279 290 297 302 286 311 298 320 328 343 347 266 265 245 255 246 253 244 237 238 236
291 293 297 309 319 317 325 323 320 322 317 312 298 299 298 295 296 295 299 298 296 300 305 309 310 314 313 319 300 299 298 302 302 301 293 271 274 340 271 285 299 322 298 325 281 272 265 241 241 241 235 241 234 235
307 297 289 293 298 312 312 319 326 322 297 286 287 287 281 291 291 284 286 291 288 290 289 298 300 296 293 273 272 294 282 290 295 296 275 296 276 283 287 286 294 294 285 274 272 248 243 236 235 237 236 237 235 233
322 309 312 311 284 300 311 307 299 286 286 283 279 286 287 317 302 296 298 284 315 325 333 341 290 284 289 293 290 288 286 297 294 269 290 281 267 271 269 270 279 279 267 256 247 243 241 238 239 237 239 243 242 235
328 337 336 319 325 304 291 303 294 291 285 282 279 304 292 277 279 289 300 293 292 232 207 301 313 348 364 363 308 204 317 335 335 316 295 295 269 267 265 266 260 253 249 245 241 239 239 240 238 239 239 238 239 242
326 208 333 337 344 356 374 287 285 289 283 284 282 299 293 280 286 288 292 283 280 282 281 282 279 283 276 272 276 283 276 270 267 270 273 267 263 257 251 247 246 245 240 239 238 238 242 237 238 237 239 239 243 240
315 315 321 323 329 342 374 381 295 293 280 292 307 293 289 290 281 278 271 273 272 270 273 267 272 276 265 268 265 256 265 262 261 262 258 258 257 251 247 249 247 241 244 245 239 241 241 240 240 242 241 243 243 242
288 292 326 334 329 353 362 385 377 304 289 332 301 288 291 282 275 269 270 278 274 266 267 278 266 272 266 273 281 286 281 268 268 268 261 255 253 252 251 248 250 245 244 246 248 246 246 246 246 245 246 248 246 239
283 286 289 307 278 353 379 393 438 317 297 311 295 294 288 283 271 271 267 263 272 279 271 273 275 273 272 271 271 267 259 241 260 239 253 240 239 251 254 250 248 249 249 248 245 239 247 246 246 235 233 247 247 248
270 277 262 283 296 327 409 436 463 320 220 309 308 298 287 281 274 272 262 264 278 275 271 270 244 270 271 266 259 259 264 263 259 264 259 256 254 223 221 221 226 229 231 232 233 234 232 233 237 232 229 251 244 232
254 253 255 279 279 276 198 282 302 277 305 298 318 271 267 272 268 267 263 265 256 198 208 251 255 275 254 268 271 271 272 273 270 265 229 224 247 266 268 251 246 225 235 228 233 232 227 245 229 238 239 241 241 248
247 240 234 236 241 240 241 254 264 266 269 267 268 266 263 264 264 263 260 259 262 261 264 266 266 266 265 262 260 256 256 258 255 253 248 250 250 248 250 252 254 257 260 259 262 264 254 262 268 272 278 280 282 284
242 240 245 245 243 235 229 236 242 197 200 243 244 245 248 244 240 242 229 226 241 243 244 244 230 243 245 246 244 246 246 247 247 248 249 252 254 254 258 262 271 273 279 273 252 277 264 275 266 275 281 277 276 275
225 219 234 233 230 236 224 214 221 234 237 229 236 241 233 236 232 244 238 233 232 237 240 223 224 225 227 227 228 228 229 229 233 236 237 233 237 234 226 234 246 249 257 266 272 274 277 280 283 289 306 312 454 452
215 235 229 242 233 232 232 222 241 243 238 248 244 240 243 244 237 236 237 242 232 234 235 238 243 243 249 237 239 239 246 254 233 257 258 264 270 270 277 281 295 332 396 522 518 513 505 492 484 477 471 467 458 452
237 238 229 223 232 237 243 238 236 244 230 244 240 241 237 239 238 238 241 243 242 244 244 241 240 242 247 255 254 253 265 273 269 262 269 277 321 358 397 460 467 459 452 449 450 444 438 432 428 424 420 417 414 410
239 245 252 245 242 251 242 244 250 248 246 245 241 242 239 237 236 233 237 241 246 249 246 253 259 259 263 266 266 278 278 279 300 312 343 380 473 474 465 453 442 428 418 410 406 401 397 393 390 389 391 390 387 382
251 243 233 240 255 253 248 247 247 239 232 233 238 237 233 244 248 244 242 234 247 253 258 262 263 262 263 275 280 287 298 322 347 461 472 460 444 432 421 413 407 396 388 382 380 380 385 399 391 385 378 372 366 361
256 257 267 268 261 255 249 247 241 233 240 245 242 245 244 244 244 247 254 253 253 258 261 265 262 268 284 288 300 321 347 442 469 452 437 439 431 491 479 427 393 384 381 375 382 392 384 377 370 363 357 352 351 363
258 250 251 239 238 243 244 246 248 244 244 248 248 242 243 242 258 259 254 255 260 268 268 274 285 288 303 322 346 410 471 449 482 556 540 524 507 492 479 457 431 401 390 390 381 373 362 353 347 339 334 336 336 335
248 246 245 245 245 243 239 241 247 247 248 253 252 245 261 256 257 259 259 267 272 281 287 293 307 325 343 390 455 458 429 446 427 412 450 523 496 464 442 418 400 387 377 367 356 346 337 328 323 320 320 325 327 338
251 250 251 251 247 239 256 257 254 253 263 264 259 258 258 260 261 270 278 282 286 291 304 309 338 359 427 452 454 428 402 421 405 392 385 418 418 404 391 380 370 359 349 340 334 325 320 322 321 329 328 332 335 346
259 258 253 250 250 252 250 260 263 263 257 263 265 267 263 273 274 283 283 295 300 303 336 366 416 435 452 440 428 403 409 405 390 378 373 372 381 374 366 352 344 336 330 324 320 317 317 321 327 329 330 333 362 384

GFSWCAN_2pvu_pres_048.txt.gz
Presure
327 325 325 324 324 324 321 331 347 352 333 318 313 310 304 288 289 292 290 286 287 296 301 297 293 296 294 293 292 171 296 304 222 305 303 308 306 305 313 314 314 317 321 324 328 298 240 305 314 312 279 296 191 144
360 361 362 361 359 353 342 339 332 317 309 303 300 296 288 283 278 276 277 286 212 268 260 278 277 256 275 254 273 106 257 276 127 285 289 287 290 295 296 293 294 289 294 292 295 306 190 325 327 325 327 337 351 304
309 309 310 313 316 318 318 313 304 305 300 283 287 288 280 277 277 277 278 283 275 266 267 265 258 235 257 262 103 265 269 270 276 161 137 280 278 276 275 279 281 252 278 282 289 293 228 298 316 318 301 331 313 318
285 284 284 284 283 286 290 295 298 298 297 292 285 280 280 281 280 277 276 274 274 276 272 262 261 190 235 261 263 116 203 266 270 274 194 186 141 276 194 277 273 170 270 271 276 277 288 282 299 305 294 329 304 295
282 280 300 296 283 280 277 277 275 273 272 267 263 259 256 255 258 259 260 271 273 271 273 272 267 264 262 215 263 261 254 167 254 255 264 163 137 257 253 248 261 270 284 295 283 282 290 284 307 290 308 317 319 295
369 380 403 398 398 405 354 348 322 315 307 298 284 278 277 274 270 267 280 281 269 271 268 259 257 253 258 256 256 250 246 254 257 256 268 276 147 241 239 279 295 297 268 287 260 267 282 273 295 300 304 311 313 156
344 386 389 391 399 393 381 383 387 393 396 396 345 321 314 308 296 287 284 259 274 278 271 268 194 268 250 265 243 229 260 262 165 178 160 150 278 280 293 266 297 306 321 314 339 271 280 295 291 283 273 271 271 188
385 366 362 367 369 371 378 375 378 389 403 409 413 398 382 378 382 365 319 311 308 301 294 288 236 279 231 278 175 186 273 276 282 141 249 140 218 292 301 246 362 375 350 321 330 369 333 284 286 321 291 276 284 277
332 352 338 342 343 352 376 392 381 361 371 406 398 388 377 366 366 312 368 370 377 404 402 378 344 334 314 345 344 337 336 329 306 288 251 310 342 375 324 184 319 334 295 329 334 350 319 276 292 279 277 283 272 258
335 329 322 326 348 353 365 369 354 355 369 361 368 357 363 374 376 366 355 349 353 350 361 357 369 372 372 366 361 122 334 335 318 316 216 363 320 318 160 309 307 309 339 334 337 341 276 298 282 274 280 272 262 258
338 326 313 319 323 327 297 325 325 336 336 334 339 344 342 340 341 339 334 338 340 337 331 344 334 167 275 302 324 334 336 333 329 319 323 307 305 300 303 201 316 274 329 324 326 273 271 280 301 269 256 275 271 274
334 338 322 321 305 310 322 321 321 322 322 331 330 325 321 324 329 326 324 319 316 322 314 307 304 312 309 312 336 331 316 321 315 323 317 306 298 299 286 316 333 251 321 312 325 270 287 262 284 275 256 315 272 265
323 313 316 326 314 302 296 313 298 330 291 313 311 297 304 333 321 305 307 313 312 302 291 304 308 315 323 327 323 310 307 322 318 294 303 297 296 306 312 270 306 309 313 306 304 305 312 271 330 271 272 265 359 275
305 305 308 305 304 307 309 311 324 298 308 305 304 306 311 310 311 311 316 314 318 317 324 317 313 314 316 325 322 304 299 313 357 322 268 264 299 306 295 283 281 286 295 305 313 321 300 286 272 279 272 289 301 287
330 313 307 305 306 305 305 301 299 303 308 299 298 297 296 302 302 304 307 307 307 311 314 313 316 324 326 341 321 288 270 266 267 272 269 270 261 287 307 278 271 286 278 282 283 285 288 287 289 284 281 279 276 280
319 308 305 302 304 294 293 284 284 293 309 315 306 305 319 309 278 281 276 276 285 279 284 286 277 302 289 278 283 279 270 266 273 266 264 282 275 283 284 280 269 271 266 267 264 272 272 274 274 273 273 278 279 280
282 298 299 293 292 292 288 311 307 297 293 288 293 288 283 280 285 305 317 277 273 279 285 271 286 286 274 283 281 289 274 268 261 259 277 276 270 262 260 257 259 267 262 260 261 263 269 264 264 265 266 270 269 269
290 300 299 274 303 300 298 291 291 280 271 280 283 276 277 278 278 275 280 281 284 289 289 292 286 282 278 278 278 276 282 271 285 288 293 273 270 260 268 273 251 261 275 271 250 256 256 258 252 255 255 255 257 253
356 275 286 321 298 301 293 287 286 271 287 277 278 271 271 274 280 270 273 265 275 269 276 269 273 275 275 276 276 281 276 277 266 270 267 286 265 268 260 251 250 249 240 254 259 254 252 254 256 255 256 255 254 255
360 293 282 283 304 305 286 284 286 269 275 273 271 270 270 286 277 247 267 263 261 259 258 260 256 258 259 252 253 256 255 254 245 259 256 249 248 253 259 260 258 256 256 245 251 252 255 256 255 255 257 259 262 265
382 294 294 297 305 290 288 286 283 274 278 273 285 273 269 267 260 258 254 245 250 254 255 255 257 257 259 260 258 256 256 258 257 258 256 257 256 256 247 251 253 257 257 260 262 264 246 243 248 249 252 216 258 261
360 309 304 310 284 287 299 285 286 285 294 268 255 260 276 264 255 256 258 261 256 254 249 244 244 246 243 240 234 239 245 244 244 245 245 246 245 245 241 242 241 244 242 244 257 261 262 262 263 272 273 266 265 271
315 293 233 266 255 284 269 262 260 266 273 269 266 258 250 252 243 243 235 244 248 247 246 246 241 239 239 238 232 236 237 236 234 239 245 245 247 248 247 246 247 249 252 254 258 263 220 239 259 265 273 276 277 281
239 243 257 242 251 253 255 252 255 247 247 244 246 246 245 244 246 242 229 234 241 228 234 236 235 237 237 237 235 236 238 238 238 240 242 240 244 246 250 253 245 240 251 266 271 274 278 281 286 289 291 293 414 415
236 234 236 260 256 253 248 247 250 250 249 246 232 246 249 246 247 243 237 238 237 235 235 236 243 244 240 237 239 242 243 241 239 246 249 249 249 249 249 262 284 309 319 324 340 474 461 455 440 438 442 433 425 415
240 251 248 243 247 247 245 247 245 257 241 236 238 239 233 245 247 243 235 234 232 231 227 235 236 242 253 253 250 242 246 242 255 265 265 271 278 281 301 322 323 405 470 471 485 474 473 446 427 412 403 396 388 384
220 231 247 246 242 236 240 243 249 252 250 246 244 242 243 237 238 241 237 239 242 242 241 241 237 244 250 252 257 259 250 251 254 260 274 278 318 322 451 476 463 447 440 431 425 493 480 457 426 403 390 382 378 384
235 241 253 235 247 245 247 250 251 251 251 247 250 249 247 244 240 240 241 244 241 237 235 243 245 242 239 247 254 255 253 260 271 317 324 324 437 403 462 448 438 429 518 502 486 471 452 428 407 392 382 380 378 368
246 245 245 249 251 253 254 253 254 262 261 251 246 241 238 239 243 242 238 233 237 238 242 243 240 244 252 253 260 258 277 325 320 394 441 396 383 446 440 424 416 498 478 458 439 421 406 394 385 379 371 362 352 344
234 237 245 254 246 243 247 250 250 245 239 236 239 244 240 237 238 239 239 241 242 241 239 241 249 253 255 261 290 318 316 378 443 388 379 402 442 434 419 403 397 393 402 402 393 386 377 368 361 349 342 335 331 328
245 248 257 257 259 255 252 249 247 246 246 243 237 235 236 242 244 248 247 245 240 246 251 252 256 302 321 316 314 377 404 375 368 381 464 447 429 418 404 389 379 378 371 368 365 357 351 346 342 335 333 331 331 331
245 249 250 253 252 248 247 243 245 248 252 251 251 253 250 247 253 251 252 251 251 252 273 314 321 313 308 392 383 358 349 377 467 467 452 433 417 411 397 385 374 371 365 363 353 352 350 347 343 340 340 343 346 344
254 254 246 240 239 248 248 251 254 257 257 261 258 256 254 251 260 267 279 293 303 310 321 314 311 400 379 358 346 348 467 467 459 448 433 414 406 400 389 383 372 369 362 359 354 352 348 346 347 348 345 341 336 338

GFSWCAN_2pvu_pres_051.txt.gz
Presure
336 330 321 320 330 337 344 350 348 341 331 328 317 319 321 334 361 302 326 316 335 312 310 307 308 312 89 98 102 234 324 334 335 343 265 252 255 254 253 262 266 266 261 252 244 241 84 164 201 253 249 249 210 257
357 356 351 335 327 325 320 320 321 321 321 321 318 325 345 347 323 319 316 315 309 320 306 287 291 294 300 296 286 101 105 315 333 341 311 292 247 250 199 257 146 254 257 259 266 262 271 269 271 276 278 273 266 269
306 307 309 314 328 358 354 331 322 322 325 332 344 338 320 316 331 313 302 300 305 298 303 303 295 295 121 290 277 298 286 307 139 314 317 177 318 309 314 319 311 316 315 268 259 152 261 260 179 267 322 324 270 269
290 291 291 293 294 301 309 330 340 338 338 340 321 313 312 311 312 290 288 290 175 297 297 254 292 295 205 296 278 221 297 298 294 301 299 296 300 299 299 223 297 298 301 301 307 309 308 306 239 309 314 315 317 314
283 279 281 281 281 284 292 295 305 315 317 309 306 301 297 302 303 291 282 275 269 274 285 290 288 287 286 229 287 230 175 281 284 288 241 281 281 214 233 251 277 268 283 286 286 287 289 290 296 293 293 293 299 301
339 339 354 359 388 414 298 281 278 290 300 299 301 294 286 285 295 291 286 281 268 268 267 268 268 263 268 269 265 264 269 266 139 276 279 277 277 161 261 269 269 267 268 273 275 275 279 277 280 278 279 283 297 286
338 388 375 377 402 407 385 380 311 291 280 278 289 291 284 281 282 274 235 278 279 285 266 256 261 262 262 260 136 260 144 161 252 264 201 249 230 263 262 258 255 258 260 262 256 254 258 257 266 280 256 299 295 285
364 365 361 367 369 374 384 390 381 331 309 295 288 277 278 288 279 271 257 265 269 279 251 272 265 266 177 259 253 205 255 257 206 196 204 264 255 267 264 255 275 273 271 279 156 243 274 276 315 284 273 278 206 276
339 336 360 376 373 368 387 388 394 390 388 324 312 299 292 286 274 274 274 280 282 287 280 277 276 272 265 260 260 259 252 203 132 254 257 268 271 147 166 271 278 269 250 207 322 289 255 342 322 330 378 362 266 290
333 350 356 339 352 372 358 372 394 391 395 386 381 336 316 306 294 293 288 287 284 285 281 277 279 272 272 275 274 270 266 265 259 252 133 200 148 277 279 289 289 322 382 348 370 342 330 320 321 346 353 358 285 296
309 313 347 342 347 357 347 361 367 386 380 384 374 371 375 384 385 343 339 317 309 305 306 300 296 289 294 291 287 285 285 286 281 218 284 285 287 299 316 365 332 334 322 309 298 332 326 331 329 341 342 285 281 281
310 313 298 314 331 322 335 345 352 351 359 353 357 361 361 370 368 363 364 366 360 356 357 361 371 372 373 237 249 259 126 362 366 357 356 351 346 349 327 318 320 305 300 292 144 312 315 324 312 322 281 282 270 263
303 295 307 303 287 299 310 315 337 323 347 337 349 365 359 336 330 330 323 324 335 332 329 326 329 323 321 320 319 316 329 329 330 328 321 329 320 162 318 313 300 318 341 327 312 311 314 315 284 303 262 272 288 297
295 297 311 312 297 296 293 289 305 315 310 306 308 312 311 312 309 310 310 317 314 309 307 315 318 306 311 314 317 336 336 344 334 327 332 320 311 315 307 318 299 295 295 296 296 298 302 300 302 271 309 267 255 260
300 305 308 295 297 300 310 308 308 312 313 307 308 306 307 312 310 311 311 318 318 326 310 316 317 318 326 326 333 331 322 303 327 310 291 290 294 301 296 290 291 286 288 296 296 289 283 285 290 290 289 296 296 278
310 308 308 313 315 306 295 287 290 292 292 295 298 300 300 303 305 303 304 303 304 307 310 312 317 317 330 335 327 310 313 302 298 288 277 270 298 289 277 276 274 279 271 263 265 265 267 272 275 276 281 280 273 270
316 310 295 283 284 295 315 283 294 307 281 280 279 283 283 284 289 289 299 295 288 293 289 285 287 285 270 269 267 271 271 277 265 257 281 281 249 280 278 272 280 262 266 269 246 274 268 265 273 279 281 282 276 273
260 278 287 322 310 293 288 289 290 288 287 284 290 273 274 270 267 268 274 273 280 251 268 250 284 281 276 252 261 268 278 284 277 277 279 257 279 277 276 252 269 274 263 252 249 266 274 271 265 262 262 264 264 263
291 308 301 292 290 284 281 273 272 273 284 279 283 285 292 294 290 294 290 289 279 273 273 277 282 289 281 277 271 265 263 264 262 260 263 290 271 252 271 259 252 248 250 246 247 254 255 254 253 252 255 260 259 258
278 294 288 287 278 275 270 279 283 276 272 275 256 249 272 271 262 261 260 259 258 259 263 262 257 256 255 254 256 256 254 253 254 254 252 248 248 246 247 248 250 253 255 262 229 226 243 255 260 258 249 252 255 253
331 301 287 280 279 274 283 284 286 282 245 257 255 258 252 258 258 261 263 261 261 260 259 250 253 257 249 241 248 238 256 253 254 254 253 248 247 246 237 238 239 244 241 246 249 256 258 258 259 260 264 265 266 264
298 272 289 287 259 273 269 258 275 282 275 253 266 261 249 247 253 258 260 259 257 256 255 248 237 234 233 234 234 238 239 245 246 248 248 248 249 248 248 249 250 250 251 249 249 260 256 250 244 258 262 265 271 275
304 281 287 291 277 273 269 298 271 250 264 249 257 262 253 256 222 247 248 237 225 243 247 247 248 247 243 242 236 241 243 244 244 245 243 245 249 251 252 246 249 250 250 247 250 263 265 269 272 275 277 277 279 281
265 267 268 263 244 255 260 256 271 260 260 253 251 248 241 232 235 224 238 247 228 237 238 236 237 238 239 239 238 238 238 240 246 249 250 248 248 247 250 238 254 264 268 272 279 287 294 304 317 336 440 457 451 439
235 255 258 253 244 234 236 237 237 237 235 248 250 254 240 249 240 235 232 235 236 236 236 235 234 234 235 234 237 238 240 240 248 242 253 263 271 272 272 267 277 283 292 304 343 354 458 454 447 438 431 424 438 422
242 245 244 247 236 244 248 248 242 233 233 236 239 242 235 233 240 240 242 238 239 235 234 236 236 237 241 245 242 248 255 258 252 264 263 265 268 270 277 288 340 335 358 403 461 450 440 432 501 490 476 455 436 418
248 242 249 248 243 242 242 246 251 250 251 248 246 244 244 242 239 238 240 242 236 239 242 246 250 248 248 251 239 253 252 246 259 266 265 275 281 317 332 391 391 390 451 446 434 444 500 488 475 461 445 426 408 395
246 245 240 248 250 251 255 258 258 259 261 261 259 253 254 251 243 244 243 248 249 249 249 242 241 249 242 251 250 262 257 266 264 279 298 330 326 382 366 370 467 451 434 421 416 472 457 441 426 412 400 392 383 377
239 234 235 237 245 248 247 246 244 249 252 251 247 247 248 244 247 248 249 245 238 239 246 248 245 253 254 260 254 266 266 280 292 336 394 374 359 354 466 465 449 430 414 401 390 387 395 394 388 381 373 365 360 353
236 237 241 244 248 252 253 250 250 248 245 242 240 243 245 245 241 240 241 249 249 247 249 251 253 251 260 266 297 328 322 340 385 370 361 351 408 471 459 450 428 411 397 386 379 369 369 366 355 354 349 343 340 337
239 239 239 239 242 246 248 247 246 242 241 242 243 235 245 249 251 253 249 247 255 254 253 255 273 310 327 319 316 328 383 368 356 346 355 463 462 453 441 433 416 401 390 379 370 369 359 362 358 350 349 349 350 351
238 243 239 243 248 251 253 252 244 244 245 247 249 252 252 250 254 258 257 253 270 275 284 318 315 309 308 327 387 366 355 347 339 381 462 447 435 427 416 406 403 393 383 378 367 368 365 359 358 352 353 350 349 346
242 244 248 247 249 246 244 241 252 254 248 246 248 250 261 261 266 270 267 281 305 307 303 308 309 319 388 364 347 344 340 358 460 443 420 392 372 374 387 378 374 373 384 382 376 367 362 356 353 349 348 347 346 345

GFSWCAN_2pvu_pres_057.txt.gz
Presure
365 342 341 349 344 327 317 315 323 337 351 383 401 414 429 448 452 336 345 353 342 324 322 317 322 321 322 168 305 340 365 350 350 365 369 374 378 252 289 292 321 255 249 243 231 233 229 215 210 212 201 218 215 208
364 363 345 338 332 325 324 320 315 328 350 389 410 424 440 420 334 344 351 345 330 320 319 319 315 311 305 368 338 341 338 327 339 338 353 358 370 364 97 278 272 309 258 237 240 237 229 233 217 223 230 220 217 216
317 313 310 309 309 316 337 333 317 323 341 387 415 432 334 337 346 341 333 325 316 314 316 303 171 311 347 336 297 314 325 332 325 326 327 339 343 352 349 260 275 273 288 258 257 233 233 229 98 161 230 239 225 218
294 293 292 291 292 292 298 317 334 311 326 328 326 326 337 338 331 332 322 314 310 301 290 309 301 327 314 317 329 317 307 312 324 315 321 329 333 336 339 340 266 250 276 278 250 254 253 246 243 203 233 181 237 241
283 283 283 286 289 289 291 292 313 322 312 322 319 317 314 312 313 309 297 295 299 310 333 322 311 305 317 299 289 292 103 276 174 180 317 316 323 323 328 332 318 308 248 266 281 250 249 246 240 219 247 241 229 230
282 283 283 290 289 292 293 285 296 331 311 310 311 311 310 307 309 313 310 337 357 335 313 294 287 291 295 301 285 283 286 287 309 294 311 310 313 312 317 317 315 309 288 252 245 280 275 255 252 246 245 241 242 242
336 352 363 375 386 385 408 290 277 301 341 306 310 307 303 314 331 299 310 329 321 299 294 289 293 286 302 286 283 103 246 218 299 296 295 299 309 309 303 303 304 308 306 306 277 252 251 255 273 280 273 267 266 264
356 348 355 360 394 372 395 346 297 275 336 340 311 304 321 332 310 300 307 307 302 292 286 287 285 280 289 280 287 274 283 157 297 306 213 289 296 293 294 291 292 295 300 300 301 302 276 249 249 248 247 248 251 253
334 338 353 353 361 368 383 394 318 289 320 326 330 324 324 308 291 296 296 301 293 288 255 286 285 281 285 283 286 289 242 219 296 297 295 259 174 279 278 278 283 284 287 254 293 298 299 301 299 301 297 298 296 297
343 342 347 377 381 375 377 353 319 299 294 325 327 325 302 291 292 286 288 284 286 286 282 285 280 280 283 286 284 273 228 289 284 283 285 280 277 141 217 280 281 281 282 282 285 284 285 289 280 283 282 285 287 287
354 348 366 351 369 371 372 353 318 301 290 313 311 305 299 299 290 290 288 283 278 276 284 278 279 281 272 271 276 283 211 116 216 274 272 270 183 186 192 267 266 270 272 273 275 276 276 264 244 186 155 161 278 278
335 349 338 350 374 367 366 363 315 300 290 292 294 296 308 306 297 290 284 281 274 269 275 224 268 266 272 273 270 267 266 267 184 132 186 269 258 271 227 144 187 268 202 267 269 268 266 211 257 265 291 233 337 353
324 333 356 355 360 364 353 370 314 298 287 287 285 291 292 281 298 298 296 278 277 273 274 271 271 268 261 265 266 249 224 266 269 128 257 189 261 266 265 255 135 270 269 247 250 225 342 335 320 334 172 310 314 312
312 327 337 338 336 349 354 351 343 306 294 286 290 281 288 275 284 278 283 281 281 270 270 271 267 269 267 270 266 269 273 275 270 271 259 274 274 178 269 274 273 280 222 303 341 163 224 314 307 290 288 300 299 288
299 307 312 319 326 340 359 361 357 358 302 297 295 294 288 291 284 288 285 282 286 281 279 276 279 282 279 280 280 279 277 282 288 293 312 349 364 362 361 142 358 343 329 313 303 297 297 293 292 240 290 286 281 281
295 297 300 306 312 322 324 328 337 342 349 352 339 306 303 298 302 343 344 346 355 356 349 347 348 355 347 348 344 348 336 347 355 347 328 333 333 330 326 317 310 301 293 289 294 290 286 281 279 271 278 281 281 278
305 303 305 308 308 304 305 308 314 312 317 324 326 327 323 329 327 325 324 325 324 326 327 336 337 320 311 311 322 302 305 306 306 304 295 293 294 296 305 287 288 282 278 279 278 279 280 273 254 275 250 271 275 278
294 295 295 295 295 296 298 299 300 305 306 307 307 310 310 310 311 317 320 317 317 308 313 305 302 298 296 292 287 280 280 279 275 282 285 285 277 270 273 275 272 275 273 273 272 276 277 273 261 256 248 259 259 266
284 283 285 289 290 287 278 281 299 288 279 259 280 281 285 284 283 268 264 259 268 270 268 275 274 273 273 272 272 272 271 268 275 279 269 267 262 259 261 264 266 264 261 257 257 261 265 267 271 269 265 265 262 264
283 279 266 261 275 281 278 276 278 276 271 272 268 280 276 263 258 248 261 267 259 257 264 266 266 260 263 257 262 263 261 261 260 264 260 251 258 264 263 254 253 254 258 255 256 255 257 258 258 258 251 248 248 250
273 268 279 273 266 268 263 256 257 245 246 257 261 259 267 271 268 266 266 262 263 263 245 260 259 257 255 255 256 257 250 248 250 237 235 237 238 245 247 248 249 250 252 254 252 253 231 255 258 261 263 254 268 260
279 277 271 265 262 260 261 260 257 252 257 257 262 262 259 260 263 260 257 247 247 254 253 250 244 241 234 237 236 241 244 246 246 246 246 249 249 247 247 250 251 247 243 245 248 257 260 264 267 272 274 274 277 284
275 267 243 263 257 262 263 258 258 258 259 255 261 264 258 253 249 248 241 230 235 241 239 243 229 227 243 243 246 246 245 244 245 248 250 249 247 246 248 249 251 254 263 266 264 268 279 287 290 293 296 300 304 311
247 250 267 255 269 254 271 259 257 262 263 262 240 235 217 230 232 221 239 243 245 228 224 243 246 247 247 246 244 246 247 247 245 245 250 254 262 265 253 265 266 268 280 285 291 295 302 315 332 342 346 379 381 376
269 253 269 271 235 266 262 262 226 240 241 239 239 240 245 243 239 239 240 243 247 247 241 235 237 241 239 246 248 247 250 259 263 264 262 255 263 267 273 285 289 300 313 327 331 328 329 386 381 373 362 366 456 480
268 264 247 238 235 239 233 238 238 235 242 232 230 246 238 237 238 241 239 242 241 244 250 243 243 248 251 260 261 257 258 252 261 264 273 275 283 292 308 314 316 318 330 371 367 362 359 355 407 461 446 434 427 466
241 233 234 235 237 240 239 235 234 238 242 247 251 249 250 253 256 255 250 248 245 249 253 255 252 250 252 250 257 255 261 272 280 277 304 320 320 320 320 360 377 362 353 350 359 431 471 464 446 430 416 406 398 395
242 244 244 245 253 255 254 252 251 249 250 250 247 252 252 253 251 247 248 250 250 250 253 256 248 255 262 260 273 278 277 314 314 309 307 313 385 385 368 352 345 372 369 466 451 438 442 440 425 410 398 389 382 375
254 255 250 250 248 246 247 253 250 246 251 253 250 252 252 251 244 249 252 259 257 257 262 268 263 267 276 275 313 322 317 309 308 337 396 377 355 342 346 377 368 460 438 401 384 372 367 366 411 404 391 382 375 368
237 243 241 243 242 241 240 240 245 248 249 249 246 242 246 247 252 253 250 259 262 252 264 266 271 272 301 325 313 309 312 337 389 373 348 337 371 373 366 464 412 391 379 371 368 368 367 367 366 359 368 374 363 361
239 238 240 243 244 246 240 247 246 248 249 243 250 250 251 252 252 263 254 253 259 266 268 277 278 322 329 314 314 332 380 378 355 334 366 368 364 452 405 387 377 380 429 445 451 446 439 425 381 389 364 374 374 373
238 233 238 241 243 246 246 245 242 239 246 247 252 248 256 259 257 248 265 255 270 271 281 286 321 332 317 321 341 387 366 338 340 373 361 435 406 387 377 383 458 446 438 436 425 420 417 403 400 399 395 390 387 385
232 235 239 239 241 242 247 240 242 248 255 253 252 253 255 262 263 258 266 270 276 287 288 318 327 322 327 377 376 353 328 368 367 354 418 393 376 374 448 438 430 424 418 411 402 397 391 384 380 377 375 371 368 366

GFSWCAN_2pvu_pres_060.txt.gz
Presure
417 405 394 377 350 348 359 341 324 316 321 328 334 345 372 384 391 409 435 428 431 331 337 357 359 347 344 337 331 320 322 321 315 329 329 236 330 326 283 298 298 278 252 241 247 236 227 220 220 217 221 213 210 208
399 368 361 360 349 336 328 325 325 319 317 329 340 361 387 399 413 442 445 401 327 337 359 355 349 343 334 335 318 328 326 324 323 322 365 364 346 360 362 340 295 289 283 251 243 240 229 222 226 213 210 211 210 212
348 329 319 312 310 310 313 322 349 320 312 332 350 384 405 420 443 456 336 332 350 356 348 340 330 328 324 327 322 283 315 307 310 310 338 342 336 342 353 341 328 286 296 288 258 243 237 234 237 184 222 222 226 220
318 308 301 296 293 293 294 298 307 338 310 329 374 413 432 433 337 331 347 346 342 335 324 320 320 317 317 309 302 301 330 339 337 326 330 324 321 336 340 356 338 164 301 330 281 266 247 241 234 232 231 164 230 227
304 296 291 290 285 283 283 286 294 312 308 319 319 318 326 335 341 350 343 333 329 317 324 317 144 303 296 222 330 318 317 322 331 323 320 314 319 328 326 336 334 330 308 317 276 278 294 251 240 245 243 235 226 225
291 290 290 281 283 284 284 280 280 295 320 311 314 318 338 344 343 335 328 325 321 319 310 300 297 297 326 320 318 322 300 300 295 319 311 306 310 316 318 321 326 326 325 244 313 273 99 286 298 254 251 251 251 177
287 285 287 347 374 381 383 311 280 279 323 302 311 312 318 321 313 308 314 322 306 292 287 299 326 314 312 305 91 294 204 287 172 300 303 293 301 302 306 313 314 322 326 323 314 291 268 266 266 282 282 253 253 251
305 351 350 351 358 371 393 396 285 277 317 298 301 304 307 266 298 303 307 303 299 338 335 320 306 296 292 300 289 280 287 178 272 291 293 289 294 298 299 305 307 308 162 310 312 316 265 268 262 254 269 283 285 263
342 340 337 346 357 362 387 391 329 273 266 307 302 303 303 303 303 316 325 260 344 318 183 296 308 299 287 290 280 286 260 280 289 283 272 286 290 294 223 294 296 300 301 298 300 299 297 297 286 284 252 249 253 275
336 327 344 357 338 366 375 348 323 293 265 320 296 294 307 330 324 312 342 307 286 288 287 295 291 307 300 288 296 280 278 180 285 284 289 274 282 284 281 293 291 292 293 291 290 294 226 291 294 301 302 305 307 263
360 337 364 364 367 368 387 331 318 296 271 335 300 301 319 308 302 300 301 311 299 292 290 287 288 281 285 278 296 282 218 270 273 284 295 288 278 277 275 277 278 279 278 280 281 281 284 288 289 290 292 291 289 294
347 363 372 373 361 375 342 321 308 292 316 314 307 312 310 300 293 301 303 305 295 290 285 285 282 279 281 280 279 278 281 213 282 281 244 261 271 263 164 254 193 278 280 281 281 280 280 280 280 280 279 276 280 284
336 350 343 358 365 350 326 305 295 287 314 312 317 311 306 278 283 287 280 279 281 274 279 282 280 280 279 271 272 272 270 193 228 248 204 270 131 119 258 270 271 270 160 159 269 268 268 268 266 265 267 270 272 274
327 338 350 352 351 327 311 303 292 290 310 308 309 299 289 285 283 285 285 286 280 274 271 269 270 270 266 266 265 252 157 262 149 260 258 145 260 262 266 267 150 173 156 142 132 263 248 249 242 128 297 350 328 313
337 343 340 345 349 323 302 297 293 291 286 302 291 288 296 293 293 284 280 269 259 262 263 261 260 260 262 261 265 268 270 268 272 274 273 273 273 275 270 270 270 277 276 278 281 282 281 284 316 330 312 303 299 292
319 329 336 339 339 337 306 294 297 294 288 282 280 280 282 279 275 273 275 281 283 276 271 270 271 276 271 269 267 267 266 269 274 281 282 292 340 339 340 337 328 165 192 323 306 323 329 314 302 297 297 293 289 291
301 307 318 330 336 349 341 307 300 298 296 296 289 287 291 292 292 291 287 283 277 271 272 275 275 279 291 284 301 347 355 363 358 348 340 342 335 326 324 320 314 308 309 311 303 301 292 292 287 285 292 282 281 294
299 301 305 307 309 314 324 340 346 347 345 332 328 364 339 358 364 364 358 352 351 353 356 359 362 357 348 349 304 300 294 293 289 287 286 287 286 288 289 284 281 280 282 285 280 276 279 278 271 277 284 284 286 273
294 294 295 296 298 304 306 309 311 315 319 321 320 320 322 323 324 311 306 302 301 294 288 282 278 275 274 276 276 277 271 272 269 266 268 262 264 264 271 271 272 271 268 266 263 265 264 264 265 265 268 267 265 264
300 280 270 276 279 275 280 279 284 274 267 267 272 270 268 269 269 272 272 267 265 268 269 268 271 260 255 257 255 259 259 260 260 258 257 254 252 255 258 259 257 257 256 253 253 256 254 253 256 256 256 258 258 255
268 270 273 269 270 271 263 265 267 265 261 255 262 264 262 263 263 264 258 252 252 246 257 256 254 253 249 249 250 249 248 247 248 249 249 248 249 247 252 255 255 240 245 243 251 253 254 251 250 254 259 256 260 263
265 263 260 260 259 258 250 261 259 262 263 259 259 256 255 260 259 247 246 246 236 245 247 247 247 242 237 234 234 230 243 247 249 248 251 251 250 249 234 224 252 253 251 251 257 260 257 256 258 268 272 276 282 289
266 261 262 261 256 256 255 259 255 252 244 252 258 255 250 245 250 246 238 237 238 237 238 230 230 246 246 250 250 234 248 248 247 246 248 251 249 259 263 265 268 268 268 265 266 271 278 286 291 297 303 310 318 326
265 261 257 262 258 260 260 258 260 266 262 251 249 246 242 237 223 239 241 249 252 239 240 245 237 241 244 245 244 247 248 249 257 260 258 258 260 261 263 267 271 280 284 286 291 303 312 324 331 335 331 330 333 367
266 263 268 261 263 262 262 258 248 243 241 243 239 247 248 239 230 232 241 243 238 240 247 252 253 241 247 252 252 254 252 253 256 258 261 265 274 281 286 292 306 321 329 325 321 320 321 331 377 370 363 361 377 474
272 271 255 257 248 235 235 231 248 241 230 232 237 250 234 239 243 248 251 252 248 244 244 248 249 244 249 252 254 255 264 263 272 276 277 299 328 327 323 320 315 316 343 378 374 365 359 353 361 382 457 454 456 445
245 244 235 238 237 244 239 234 236 238 246 254 254 253 252 248 248 249 248 246 241 247 248 250 250 255 254 259 258 265 275 280 300 326 328 319 313 313 330 378 385 366 353 346 366 378 376 422 445 414 393 382 374 397
239 242 242 244 244 248 253 255 251 252 250 250 251 248 247 245 245 246 243 238 244 247 257 244 257 251 260 267 266 278 286 317 323 319 320 336 382 392 371 348 340 371 374 370 463 427 403 392 381 375 370 366 364 366
244 248 249 255 244 248 250 248 241 242 246 241 247 246 239 241 242 246 248 250 252 250 252 260 257 255 267 277 280 283 323 325 327 339 389 386 367 337 343 376 366 394 418 400 388 381 382 393 401 441 431 411 386 370
253 241 244 248 245 240 242 247 240 240 240 244 244 237 243 250 249 247 252 259 253 258 259 256 271 273 277 285 289 326 326 333 365 389 364 335 346 376 362 422 409 392 383 410 461 452 445 441 440 439 436 436 429 434
239 237 237 240 240 237 236 241 245 246 247 238 238 243 248 250 252 255 252 256 261 258 260 268 274 283 286 300 327 333 338 391 372 343 333 373 363 352 415 391 376 395 445 439 433 427 421 414 407 399 395 393 391 389
230 235 230 230 233 236 237 245 250 236 235 242 243 247 255 257 255 246 261 254 264 262 270 276 278 290 290 328 337 343 389 361 332 350 371 352 354 403 381 369 418 412 403 397 394 390 386 384 382 380 379 377 375 374
231 232 229 231 245 245 243 241 242 243 243 246 251 249 258 259 255 256 263 267 265 267 266 279 294 285 328 338 355 379 352 329 362 366 346 422 399 374 369 374 154 399 392 388 386 384 382 382 382 383 383 383 381 380

GFSWCAN_2pvu_pres_063.txt.gz
Presure
292 298 313 293 306 386 386 342 332 352 333 319 311 319 326 333 345 365 371 378 385 391 421 409 389 340 341 357 353 357 358 346 324 311 253 303 294 278 279 279 281 291 294 259 242 234 227 228 219 228 231 216 215 214
294 308 290 304 382 353 349 351 343 334 329 326 310 325 331 349 366 378 385 390 398 425 408 419 345 333 344 355 350 341 342 334 322 315 310 310 308 298 284 281 274 280 297 300 251 253 222 228 224 216 221 220 217 216
288 286 309 408 339 315 308 304 307 319 349 317 318 329 350 368 383 391 403 419 447 416 406 328 327 353 356 346 339 335 319 320 313 307 313 312 311 309 310 304 272 275 285 296 299 244 247 243 230 228 221 222 220 218
290 309 361 352 317 307 300 294 294 298 318 312 323 336 378 393 403 420 447 446 413 333 327 339 363 353 345 336 326 319 299 306 310 308 309 308 336 307 332 322 308 332 287 283 298 309 241 243 241 247 232 173 227 222
307 354 358 323 307 298 291 283 282 282 291 319 319 316 329 429 443 464 350 334 332 348 356 354 339 330 323 314 313 311 322 316 307 308 303 326 323 320 336 329 320 314 279 251 292 325 292 243 240 244 245 235 241 212
340 352 321 309 303 291 289 277 275 280 280 306 313 317 329 330 327 336 346 356 353 343 333 327 324 315 309 214 306 300 231 222 325 328 327 320 323 324 339 325 308 304 297 290 314 283 297 279 293 242 244 247 245 248
338 316 307 302 290 290 270 266 270 277 279 282 312 315 338 338 346 346 344 334 326 322 314 311 305 304 300 294 293 314 312 192 317 316 302 260 304 316 326 332 304 299 297 292 295 306 310 283 277 294 286 263 251 250
310 304 295 286 287 332 358 380 388 350 276 281 311 311 331 334 339 341 330 320 312 311 199 299 310 310 319 310 218 302 287 295 298 131 302 303 300 306 310 308 322 318 301 302 300 298 295 296 304 290 269 278 282 286
297 284 293 346 348 350 372 370 392 341 305 283 309 307 312 309 319 318 316 308 296 288 282 329 319 321 314 292 300 107 195 290 285 294 289 290 292 291 296 296 303 311 312 315 308 308 305 302 297 302 303 306 278 272
319 348 346 340 344 348 373 389 344 328 271 292 302 299 307 303 303 301 296 292 295 314 322 308 300 295 299 283 293 292 232 208 279 276 282 286 284 279 283 285 291 298 303 306 309 311 309 306 299 298 297 295 294 273
358 353 341 345 352 355 371 354 332 312 266 312 299 301 304 306 307 320 325 317 335 312 303 288 290 309 286 289 275 285 270 274 284 282 278 275 279 278 278 280 284 286 288 292 293 290 291 289 286 289 290 288 288 289
366 364 340 349 368 360 377 333 314 291 271 307 301 296 323 333 324 334 358 321 308 296 301 287 309 282 284 225 292 198 277 271 275 274 275 280 272 268 272 273 279 282 286 284 284 283 282 281 281 281 283 284 285 288
352 363 357 370 366 379 328 311 294 288 277 310 300 312 314 327 369 316 300 294 296 295 294 279 280 286 272 270 282 267 201 113 279 269 282 275 282 276 213 271 274 275 276 276 273 237 273 274 275 276 279 281 283 282
355 355 359 360 346 323 305 294 294 282 329 308 306 306 293 272 294 305 297 297 295 289 290 288 285 279 282 279 281 279 278 275 140 125 279 261 261 237 154 275 277 276 267 258 137 144 267 180 272 272 273 272 272 272
340 337 342 325 317 301 298 294 286 319 304 304 303 295 289 289 293 283 281 271 271 277 276 271 272 269 265 265 269 270 266 268 270 265 264 261 188 264 264 264 265 262 262 215 264 264 213 265 221 236 264 215 133 225
345 334 327 316 298 302 295 290 298 309 309 306 300 300 295 289 277 277 275 271 271 269 270 270 270 270 261 265 265 266 269 275 264 117 270 273 274 275 280 284 289 289 294 289 283 284 281 290 285 298 286 296 339 326
329 319 310 312 294 302 292 277 276 306 302 301 297 291 288 286 285 284 285 279 280 272 277 273 275 278 274 271 270 272 271 271 275 284 321 361 355 344 341 324 331 330 330 327 330 328 330 324 322 315 312 305 301 301
337 325 315 309 300 295 296 291 283 275 274 268 276 271 272 274 272 274 273 272 272 272 277 274 273 275 283 292 299 305 359 351 307 295 292 293 292 292 288 287 287 286 286 286 287 289 290 285 281 280 276 274 269 270
309 319 330 341 349 332 311 310 302 302 299 291 292 299 310 340 341 357 369 370 370 368 366 340 334 330 299 290 283 277 270 262 260 262 265 263 266 264 263 263 264 264 265 267 267 267 267 267 265 263 261 262 264 263
300 307 309 311 319 327 332 335 343 346 350 346 344 341 319 309 300 290 287 282 276 271 269 266 258 257 255 252 255 254 255 256 256 254 257 254 251 245 250 251 252 256 257 258 259 259 258 257 255 255 256 256 256 259
281 276 274 280 282 283 284 282 282 281 279 277 273 269 263 259 258 258 254 254 254 252 252 251 247 246 247 248 249 249 249 247 242 244 250 241 239 238 239 241 239 240 240 243 243 246 257 260 261 264 261 260 262 264
268 268 268 266 262 253 255 260 259 258 260 256 256 256 244 244 248 245 247 245 246 244 243 239 237 235 234 237 240 242 245 247 249 249 250 254 257 257 257 258 258 261 262 265 268 271 273 274 274 278 281 286 290 292
264 264 265 265 266 267 261 261 257 257 257 253 250 246 248 243 242 239 239 234 237 232 226 250 247 250 249 248 247 252 252 255 255 254 255 257 261 264 264 264 268 276 280 283 287 290 291 295 308 320 326 330 335 336
258 260 259 256 252 249 255 257 255 251 246 248 249 231 221 241 235 242 244 243 247 250 249 245 240 251 248 249 246 248 251 251 255 253 252 256 261 273 284 288 292 303 316 327 333 335 329 323 320 319 324 332 365 371
256 255 258 256 259 263 260 244 243 242 243 250 247 234 235 235 249 253 254 247 242 245 244 249 247 251 245 246 253 257 238 240 255 263 271 279 284 286 315 320 326 326 326 328 339 389 384 373 366 361 357 359 380 378
264 257 261 261 252 245 231 230 231 235 242 249 251 252 255 253 251 247 243 247 246 238 238 237 246 246 246 248 255 253 265 263 268 280 286 288 325 329 332 339 362 392 383 368 355 346 356 379 377 375 389 427 416 403
257 247 233 238 236 236 238 240 246 253 257 249 247 247 243 241 239 244 239 237 236 244 250 249 250 253 247 251 253 260 270 275 287 284 330 334 340 350 394 381 358 342 348 379 374 365 386 417 404 395 387 380 379 380
237 241 241 239 244 251 258 249 247 246 249 250 247 248 241 242 240 245 245 248 243 242 243 252 255 254 254 259 258 271 275 289 295 335 337 346 386 377 348 333 365 375 362 354 409 400 388 451 464 457 452 449 449 447
244 247 249 257 252 249 248 245 241 246 242 238 238 238 233 234 239 248 250 246 247 245 249 250 252 261 255 258 268 277 293 298 337 340 358 380 358 335 355 375 359 354 416 398 379 406 440 437 433 428 421 416 413 410
256 249 242 245 245 239 242 240 237 241 240 244 245 235 227 232 241 244 246 256 255 252 255 257 261 273 263 269 274 295 294 326 346 376 374 342 341 370 363 349 423 404 382 371 414 405 399 396 393 390 389 387 385 384
239 234 233 234 236 235 236 236 236 240 243 241 234 236 242 249 246 244 253 254 260 255 255 271 270 272 271 274 277 289 300 347 384 367 339 358 369 354 348 416 391 374 386 413 408 398 394 392 392 392 392 392 390 388
234 232 236 230 230 227 229 242 243 240 239 239 238 243 248 253 244 254 256 253 257 255 267 270 270 279 273 283 285 295 344 384 364 340 364 363 349 367 408 383 371 426 418 413 407 401 402 404 388 377 367 357 360 364
235 231 233 233 230 230 239 242 244 247 241 241 242 241 251 248 254 250 254 260 259 264 270 272 279 275 283 284 294 314 382 362 341 366 358 349 360 403 145 374 434 425 416 412 409 393 379 361 351 353 351 352 353 352

GFSWCAN_2pvu_pres_069.txt.gz
Presure
293 292 292 293 292 292 293 292 285 289 292 292 295 331 313 337 329 317 315 322 322 325 331 343 350 350 355 358 345 313 325 339 126 188 352 342 324 309 297 299 275 261 272 277 281 282 248 271 252 271 252 248 224 215
284 270 288 286 285 288 287 287 289 291 280 289 296 325 301 315 310 320 327 332 342 344 352 367 368 362 363 362 349 322 319 347 336 333 349 352 333 300 295 288 276 257 262 281 283 270 281 290 263 304 253 249 244 222
299 292 291 297 293 288 281 279 280 275 302 302 349 309 287 304 316 314 316 372 379 382 379 379 376 373 375 359 342 349 319 334 357 344 213 353 325 300 294 291 283 267 263 276 284 276 280 280 255 293 255 248 240 244
314 309 304 302 302 298 292 293 300 301 303 323 328 291 284 300 312 333 343 388 391 391 384 382 393 386 393 366 338 333 338 348 348 348 367 331 329 315 291 290 289 285 268 266 279 278 286 244 283 287 258 245 246 231
325 316 309 304 304 300 297 302 300 307 307 350 308 279 292 295 308 336 391 386 381 384 389 411 397 443 435 347 352 324 351 357 361 319 340 339 313 301 298 284 286 295 285 269 258 265 276 274 283 250 289 243 238 238
329 319 311 309 305 300 301 300 302 314 358 327 293 281 285 292 314 328 409 401 398 412 447 439 427 413 364 354 323 334 337 341 351 324 321 312 299 296 288 315 288 295 293 285 266 264 270 268 277 282 263 250 237 167
343 323 315 307 304 304 306 304 308 345 335 309 281 278 281 291 340 334 329 407 437 420 444 398 335 326 326 333 354 335 319 316 316 309 303 303 299 293 295 289 295 285 289 290 280 275 278 280 274 276 281 248 272 228
361 330 314 312 309 310 309 305 339 333 319 290 271 270 281 293 347 333 334 336 338 342 344 342 343 342 344 331 314 316 310 306 305 301 302 300 301 299 307 307 299 294 289 292 294 302 281 274 280 283 281 277 281 288
353 336 322 319 313 308 301 339 331 316 296 291 269 268 287 321 354 357 355 356 350 345 339 336 324 317 318 310 307 304 305 303 297 299 304 302 298 295 293 303 311 292 310 302 306 303 302 309 298 304 302 292 282 284
327 321 317 310 307 304 337 319 302 284 277 270 359 311 295 340 339 335 340 334 328 324 320 315 315 301 306 299 295 299 289 280 293 293 293 322 294 293 307 311 296 327 306 304 302 302 303 300 318 299 296 291 330 320
314 309 308 303 339 325 307 284 295 331 402 351 304 293 331 326 319 318 317 317 314 309 313 309 305 297 305 316 298 308 250 309 111 298 307 303 305 313 308 313 303 319 301 302 301 301 305 302 302 322 304 315 297 300
306 316 336 327 310 287 301 321 360 394 328 296 292 314 317 312 306 311 304 296 295 296 294 310 310 314 306 302 304 303 303 106 305 298 284 294 295 299 297 302 309 327 313 294 301 295 295 292 293 291 286 285 291 293
320 312 295 295 300 309 327 380 389 310 294 291 301 307 309 296 300 291 286 280 272 324 309 291 289 292 287 281 281 281 287 288 288 281 284 282 287 283 286 288 291 295 303 313 311 299 289 290 290 295 303 315 312 311
323 319 319 319 337 350 381 338 301 289 294 297 297 295 297 294 286 283 287 301 317 302 300 284 281 287 277 275 273 279 265 283 128 277 280 279 280 280 279 280 280 281 284 285 284 286 286 287 288 292 293 294 295 296
380 376 359 356 356 371 321 288 281 291 295 295 296 241 296 299 294 294 320 306 299 295 293 287 267 286 282 276 282 285 273 264 276 279 276 276 223 175 227 193 189 169 126 280 283 284 284 232 135 127 141 282 286 286
340 342 351 356 334 300 282 283 293 294 299 322 324 323 321 321 312 317 295 280 272 274 273 291 273 275 275 273 275 282 272 277 267 207 218 120 116 130 244 183 266 177 270 198 270 269 269 269 271 271 273 275 276 276
354 339 326 303 293 282 296 298 297 313 324 350 346 291 348 343 294 293 289 284 292 292 289 278 286 275 284 277 278 270 265 267 145 133 257 255 256 284 290 285 293 288 291 290 291 292 292 292 291 292 296 295 305 316
302 297 295 281 282 301 299 296 309 308 318 313 299 295 292 287 292 295 290 281 282 282 276 279 266 261 259 258 281 308 308 289 282 278 272 273 272 269 262 265 263 264 262 263 263 264 263 265 268 269 268 267 267 269
290 286 282 320 316 307 305 306 294 291 296 295 288 285 286 276 274 274 273 267 266 269 267 301 312 302 297 281 273 266 261 254 252 248 250 253 254 253 252 253 255 255 254 253 251 256 258 260 261 262 262 263 263 264
305 308 307 311 310 312 303 292 286 292 293 275 286 292 282 276 276 295 303 312 299 288 279 275 269 261 252 249 248 248 243 239 243 245 247 250 254 253 256 259 263 262 262 251 252 252 256 261 266 270 273 276 277 278
295 306 306 304 307 301 305 294 289 280 286 291 304 311 318 293 283 272 267 263 261 255 245 249 250 243 238 249 246 245 235 237 239 247 247 246 251 249 251 260 265 271 272 275 277 289 304 302 301 301 300 302 305 308
283 284 287 285 289 292 303 314 317 309 293 283 276 269 266 264 259 251 248 248 250 243 243 246 239 233 240 245 248 251 249 252 252 252 252 253 255 257 255 275 272 272 279 295 312 331 336 334 335 339 342 340 339 340
350 345 342 348 309 289 281 276 270 268 266 262 256 252 252 252 249 250 245 242 237 247 250 247 235 243 245 248 249 250 251 263 255 257 267 258 249 254 265 263 281 307 327 339 345 347 351 356 360 369 373 378 373 368
284 280 278 273 268 263 261 255 256 254 253 251 249 243 253 251 243 241 251 249 229 233 238 246 247 248 249 239 238 246 251 251 261 252 256 255 263 271 268 305 327 348 360 366 375 373 359 347 342 343 353 364 371 370
259 256 255 251 250 250 242 242 242 243 242 250 249 248 255 254 249 246 232 246 247 249 238 239 250 250 246 246 243 250 257 254 253 257 263 253 283 283 290 342 373 380 375 353 338 348 358 364 364 356 349 353 423 407
252 252 250 243 239 241 230 235 256 256 253 251 251 250 247 246 248 245 244 251 246 247 246 246 246 246 246 254 255 255 256 253 259 273 273 278 287 292 355 383 375 351 348 359 362 361 358 349 376 422 404 387 379 404
243 242 242 244 249 261 253 251 251 245 242 242 242 240 238 242 240 243 245 237 244 240 244 246 242 238 237 256 255 262 259 261 273 289 278 292 298 308 380 364 355 360 364 351 352 348 432 414 392 380 405 422 418 410
243 241 244 248 256 244 250 252 249 244 245 240 241 240 238 231 231 240 242 243 245 241 247 248 247 245 254 257 264 268 269 267 272 277 281 300 295 383 366 358 363 357 341 351 424 419 395 375 392 430 423 417 410 407
242 244 251 254 253 249 253 249 244 247 246 245 240 235 234 231 233 237 233 237 239 245 246 247 252 258 255 259 267 267 265 273 287 282 287 297 387 364 360 361 353 345 361 429 415 386 374 440 432 424 419 415 401 372
248 251 255 252 245 239 234 243 244 244 245 240 239 238 241 240 240 238 241 245 249 247 249 251 257 258 258 260 267 266 276 276 286 279 298 337 372 365 361 353 348 374 429 413 390 372 443 421 431 420 398 371 358 352
256 259 244 242 241 237 239 234 239 244 243 242 242 228 236 244 241 243 248 244 250 250 256 255 259 259 255 265 265 279 274 287 285 296 294 376 365 360 352 349 365 428 409 393 375 366 397 393 415 391 366 355 350 349
260 234 241 237 239 239 238 238 238 241 242 243 241 240 242 244 243 245 250 250 251 254 251 259 259 252 264 265 275 285 276 289 291 294 334 367 363 356 350 358 427 409 388 376 371 394 384 402 397 370 359 351 349 344
243 239 238 237 235 240 235 232 238 239 241 242 240 243 242 243 241 253 250 250 254 251 258 261 254 265 269 257 277 291 281 293 296 289 367 363 359 351 355 428 411 388 374 378 369 426 383 403 391 370 359 352 348 345

GFSWCAN_2pvu_pres_072.txt.gz
Presure
292 295 297 287 282 278 279 284 290 291 290 292 290 293 285 288 269 285 302 304 310 314 315 322 333 336 340 343 344 326 319 331 325 320 323 339 358 360 328 302 306 292 304 262 276 286 265 269 260 247 244 231 265 233
284 281 284 283 283 285 284 285 283 283 283 280 281 284 283 271 295 322 296 299 310 322 321 359 353 350 353 354 348 338 310 333 329 319 115 255 373 322 346 312 303 296 290 264 269 282 275 277 262 254 238 233 222 259
333 324 294 281 279 276 273 273 272 271 286 289 287 278 281 310 353 300 289 296 315 321 380 380 379 379 365 365 361 346 326 322 326 336 344 263 337 351 332 315 299 294 287 265 264 280 281 278 277 266 240 232 238 238
342 342 326 310 296 285 284 289 286 284 291 293 292 296 297 304 328 295 284 305 334 398 395 384 388 382 378 367 354 346 331 321 323 335 340 336 348 333 325 312 293 288 285 274 262 275 282 284 283 274 269 254 247 259
348 339 333 321 313 309 301 295 292 296 298 299 299 297 305 342 299 285 295 324 336 387 390 383 388 401 385 371 349 340 346 320 325 357 341 333 339 324 312 299 287 285 283 282 261 261 271 280 283 283 282 267 258 284
360 369 333 330 319 309 304 298 300 300 299 299 299 302 346 321 287 285 301 334 321 384 387 375 383 415 400 376 351 334 338 316 353 343 335 328 307 310 297 289 283 280 281 286 272 258 259 275 277 278 275 265 283 294
339 355 364 341 321 312 306 304 305 300 301 300 299 299 335 292 281 288 302 342 371 398 390 398 451 415 431 369 355 333 321 352 320 327 341 306 297 292 307 297 289 286 286 283 277 267 260 265 279 281 270 282 267 259
335 346 356 349 325 314 312 303 302 304 299 302 300 337 307 281 281 292 346 336 327 423 453 439 416 407 370 358 320 347 344 349 311 320 317 302 300 296 302 300 301 296 296 287 288 294 272 263 263 263 274 283 285 276
330 352 355 348 326 317 308 302 301 301 306 298 337 318 287 273 287 328 349 341 339 326 342 355 334 327 329 334 322 326 326 322 310 310 312 313 300 296 300 306 309 308 316 292 291 294 300 297 279 266 269 277 278 276
312 361 354 341 328 314 305 304 307 303 301 336 314 289 273 274 296 358 350 359 355 356 356 351 345 331 328 324 323 320 317 307 308 309 316 305 304 310 305 297 281 311 288 292 293 292 295 302 298 310 291 277 279 275
305 367 349 342 322 309 312 312 297 313 325 305 290 283 291 321 346 347 339 330 332 335 334 334 325 316 313 311 306 308 306 219 307 297 305 293 290 293 293 287 287 307 282 327 297 298 314 310 310 306 308 312 323 312
353 339 329 323 318 311 303 297 326 315 290 281 281 301 307 300 333 325 314 317 309 309 307 303 295 302 296 298 287 292 288 286 282 279 295 294 305 310 302 290 291 297 315 306 342 341 331 317 309 306 311 303 305 313
328 322 313 307 301 298 325 321 287 300 382 344 318 297 323 313 309 303 306 307 303 297 291 307 311 311 310 298 315 314 313 101 306 297 296 295 293 293 298 294 293 296 295 300 310 321 327 310 297 299 301 299 298 296
311 310 300 305 327 321 282 301 353 386 321 307 295 310 304 311 304 300 295 290 288 282 311 306 299 297 297 291 295 297 295 293 289 286 285 280 283 283 285 285 285 288 290 290 294 289 286 287 298 309 307 301 298 303
315 324 322 311 288 304 340 375 329 308 295 299 302 296 315 307 293 282 281 297 315 290 294 293 291 283 274 277 189 283 202 283 270 265 276 259 272 280 280 282 284 122 206 226 285 284 286 287 287 289 289 290 292 290
299 293 303 307 316 369 331 308 296 291 300 299 297 303 296 288 286 313 315 305 301 288 273 287 281 282 278 270 279 287 268 263 278 270 272 270 270 138 238 260 265 202 271 176 277 285 285 285 282 280 278 281 283 232
355 337 347 365 367 309 299 293 285 298 295 294 291 286 292 295 319 313 312 303 297 293 273 275 276 273 276 277 278 279 277 268 262 147 258 167 121 266 293 295 265 263 272 268 264 264 263 264 264 265 265 265 266 268
366 364 347 311 301 295 286 297 299 296 296 310 314 318 310 315 303 290 284 286 286 291 277 283 278 280 274 258 258 256 287 292 280 271 259 258 256 253 252 249 253 250 253 256 258 258 257 258 260 261 262 263 263 264
316 306 301 295 290 296 295 312 317 338 334 337 331 319 326 305 287 283 284 284 279 273 267 266 258 254 278 289 275 259 251 248 250 249 244 248 252 252 252 251 251 251 252 253 255 259 263 264 261 262 262 262 270 273
290 297 299 295 303 307 321 330 326 313 308 296 302 302 294 282 280 270 267 272 262 259 280 300 289 261 251 247 248 249 238 244 247 244 244 243 250 259 258 255 257 259 261 266 265 272 276 282 284 284 289 297 302 304
319 291 293 308 301 310 306 304 297 296 293 285 283 275 270 267 264 267 304 313 276 254 251 251 248 245 244 246 246 244 246 248 249 256 255 258 263 265 262 259 261 262 262 268 279 285 301 325 330 331 333 335 339 343
305 306 310 293 288 285 292 293 286 287 285 283 271 283 310 299 278 258 253 251 248 243 247 247 247 240 240 238 244 249 246 251 250 250 251 256 249 250 259 263 263 267 276 281 318 340 357 361 363 364 367 369 372 374
307 312 304 297 293 294 282 284 275 291 303 311 289 271 254 255 251 246 244 246 245 245 249 246 246 245 250 252 247 247 248 246 250 247 242 233 250 255 270 266 275 286 309 337 375 377 377 372 361 352 348 347 352 357
285 278 277 283 300 317 318 299 287 273 265 257 253 251 251 251 246 241 241 251 227 240 242 247 237 252 244 248 250 253 250 257 263 263 261 256 255 278 278 277 292 331 377 380 369 359 354 355 364 363 356 354 354 352
321 334 319 287 271 267 263 254 251 251 249 253 251 242 234 254 247 240 243 249 249 250 245 244 244 244 237 238 238 240 239 256 259 262 263 269 275 276 284 292 328 387 376 362 358 359 362 350 343 347 363 435 423 408
257 253 255 253 250 252 252 252 253 249 235 242 243 248 246 249 251 247 251 247 248 244 242 241 240 241 244 249 246 245 248 257 256 262 262 278 283 283 291 290 397 376 364 361 358 349 346 357 449 429 416 393 379 386
249 247 247 248 242 251 253 246 237 250 249 249 247 245 243 249 247 242 241 234 238 242 242 244 246 246 246 247 251 249 249 262 261 278 267 282 277 295 302 286 383 365 363 354 348 354 455 430 420 395 381 378 439 433
241 252 235 233 253 249 243 243 241 244 241 235 240 237 238 233 230 233 230 230 238 235 244 243 249 246 247 251 256 249 256 264 254 276 275 288 281 301 304 318 367 363 355 349 357 449 419 408 388 375 414 399 433 423
261 255 256 246 248 248 244 239 245 238 242 243 237 235 236 235 235 236 241 240 246 248 244 248 244 244 257 258 250 260 263 261 269 274 280 285 288 319 302 373 364 358 351 353 441 419 397 384 377 369 410 391 429 412
256 256 257 251 255 251 235 236 249 247 243 237 237 241 240 237 241 246 243 246 246 246 243 245 253 245 256 259 252 262 266 257 268 281 289 303 328 308 321 366 362 355 353 439 419 395 378 379 378 369 392 394 403 385
259 254 247 244 241 236 241 244 248 246 242 239 240 242 223 238 239 246 241 239 247 245 241 254 247 255 258 257 256 271 256 266 281 290 286 319 301 310 364 361 356 354 399 419 395 380 376 376 375 431 395 392 405 385
254 255 248 245 242 241 233 228 235 241 237 237 238 239 240 243 239 236 241 250 245 241 252 254 242 259 259 258 272 264 266 281 283 294 310 298 301 350 360 358 354 351 420 398 381 374 380 455 448 402 391 382 399 392
260 237 242 242 234 237 233 236 232 240 233 233 241 243 243 236 238 237 248 245 246 249 256 241 253 262 260 257 268 267 280 281 294 296 317 303 318 351 364 357 345 420 400 383 375 408 425 413 401 390 381 376 397 397